CMA27S ZUUU-LFPG

Flight info

Callsign CMA27S
Flight time 12h 6m
Altitude 30100
Route MUMGO9W MUMGO B213 LXA B345 NONIM/N0500F300 B345 TUMLI/N0499F320 B345 NARAN L626 DPN G333 MERUN L750 RANAH B449 KEMOR/N0484F340 B449 MAMED P130 REBLO DCT DELEL DCT TBN DCT TEMEL UW71 ARSUG UM11 EMLAD UW71 TERME DCT CRM DCT EKSUK UL852 ODMAX/N0476F360 UL852 NEGEM Q6 ERDOM Y520 UTEKA DCT OKLOP DCT ENUPU DCT GUBOK DCT GORPA DCT SEHOR DCT KUBUD DCT GOTEK DCT MOBDO DCT RONAG L613 HOC DCT LUL DCT RLP
Aircraft B77L/H-SDE1E2E3FGHIJ2J3J4J5M1RWXY/LB1D1

Departure

Time 2026-05-08 13:37
Airport Chengdu Shuangliu International Airport (ZUUU)

Arrival

Time 2026-05-09 01:44
Airport Charles de Gaulle International Airport (LFPG)
Time Latitude Longitude Altitude Speed Heading
2026-05-08 13:28 30.59232 103.95756 1651 ft 0 kts 116°
2026-05-08 13:33 30.59235 103.95748 1651 ft 2 kts 116°
2026-05-08 13:33 30.59242 103.95731 1651 ft 2 kts 119°
2026-05-08 13:33 30.59251 103.95715 1651 ft 2 kts 124°
2026-05-08 13:34 30.59261 103.95700 1651 ft 2 kts 132°
2026-05-08 13:34 30.59273 103.95686 1651 ft 2 kts 151°
2026-05-08 13:34 30.59288 103.95681 1651 ft 2 kts 186°
2026-05-08 13:34 30.59300 103.95684 1651 ft 1 kts 200°
2026-05-08 13:35 30.59302 103.95685 1651 ft 0 kts 200°
2026-05-08 13:35 30.59299 103.95683 1651 ft 3 kts 202°
2026-05-08 13:35 30.59278 103.95619 1651 ft 14 kts 282°
2026-05-08 13:36 30.59305 103.95524 1651 ft 0 kts 290°
2026-05-08 13:36 30.59306 103.95522 1651 ft 3 kts 290°
2026-05-08 13:36 30.59309 103.95409 1651 ft 21 kts 245°
2026-05-08 13:36 30.59072 103.95267 1653 ft 76 kts 201°
2026-05-08 13:37 30.58290 103.94902 1651 ft 163 kts 202°
2026-05-08 13:37 30.57050 103.94376 2037 ft 197 kts 201°
2026-05-08 13:37 30.55789 103.93744 3032 ft 199 kts 204°
2026-05-08 13:37 30.54490 103.93075 3648 ft 220 kts 203°
2026-05-08 13:38 30.52984 103.92324 3982 ft 244 kts 202°
2026-05-08 13:38 30.51392 103.91535 4492 ft 257 kts 203°
2026-05-08 13:38 30.49718 103.90692 5110 ft 264 kts 207°
2026-05-08 13:38 30.48300 103.89311 5651 ft 271 kts 238°
2026-05-08 13:39 30.47697 103.87279 6383 ft 272 kts 267°
2026-05-08 13:39 30.47986 103.85112 7101 ft 274 kts 294°
2026-05-08 13:39 30.49061 103.83310 7763 ft 276 kts 317°
2026-05-08 13:39 30.50537 103.81853 8451 ft 280 kts 321°
2026-05-08 13:40 30.52069 103.80428 9163 ft 283 kts 321°
2026-05-08 13:40 30.53603 103.79006 9907 ft 285 kts 321°
2026-05-08 13:40 30.55170 103.77542 10565 ft 290 kts 321°
2026-05-08 13:40 30.56776 103.76031 10817 ft 311 kts 321°
2026-05-08 13:41 30.58520 103.74378 11006 ft 333 kts 321°
2026-05-08 13:41 30.60354 103.72632 11173 ft 356 kts 321°
2026-05-08 13:41 30.62320 103.70755 11521 ft 372 kts 321°
2026-05-08 13:41 30.64184 103.68634 11896 ft 382 kts 305°
2026-05-08 13:42 30.65308 103.65816 12487 ft 387 kts 286°
2026-05-08 13:42 30.66013 103.62776 13055 ft 394 kts 285°
2026-05-08 13:42 30.66734 103.59677 13738 ft 400 kts 285°
2026-05-08 13:42 30.67472 103.56541 14406 ft 404 kts 285°
2026-05-08 13:43 30.68221 103.53388 15102 ft 406 kts 285°
2026-05-08 13:43 30.68979 103.50220 15827 ft 408 kts 285°
2026-05-08 13:43 30.69734 103.47074 16517 ft 410 kts 285°
2026-05-08 13:43 30.70507 103.43864 17212 ft 412 kts 285°
2026-05-08 13:44 30.71284 103.40638 17906 ft 414 kts 285°
2026-05-08 13:44 30.72057 103.37428 18527 ft 417 kts 285°
2026-05-08 13:44 30.72842 103.34164 19084 ft 420 kts 285°
2026-05-08 13:44 30.73630 103.30887 19673 ft 420 kts 285°
2026-05-08 13:45 30.74416 103.27612 20265 ft 421 kts 285°
2026-05-08 13:45 30.75202 103.24327 20844 ft 422 kts 285°
2026-05-08 13:45 30.75992 103.21019 21426 ft 424 kts 284°
2026-05-08 13:45 30.76774 103.17742 21974 ft 425 kts 284°
2026-05-08 13:46 30.77567 103.14422 22498 ft 427 kts 284°
2026-05-08 13:46 30.78365 103.11083 23021 ft 428 kts 284°
2026-05-08 13:46 30.79164 103.07736 23559 ft 430 kts 284°
2026-05-08 13:46 30.79956 103.04406 24006 ft 432 kts 284°
2026-05-08 13:47 30.80647 103.00984 24380 ft 433 kts 276°
2026-05-08 13:47 30.80683 102.97492 24663 ft 433 kts 267°
2026-05-08 13:47 30.80557 102.93964 24929 ft 439 kts 267°
2026-05-08 13:47 30.80444 102.90402 25326 ft 440 kts 268°
2026-05-08 13:48 30.80351 102.86848 25786 ft 440 kts 268°
2026-05-08 13:48 30.80273 102.83332 26207 ft 442 kts 268°
2026-05-08 13:48 30.80204 102.79739 26594 ft 444 kts 268°
2026-05-08 13:48 30.80139 102.76124 26990 ft 447 kts 268°
2026-05-08 13:49 30.80074 102.72505 27387 ft 449 kts 268°
2026-05-08 13:49 30.80007 102.68859 27726 ft 452 kts 268°
2026-05-08 13:49 30.79936 102.65195 28086 ft 454 kts 268°
2026-05-08 13:49 30.79863 102.61503 28478 ft 456 kts 268°
2026-05-08 13:50 30.79790 102.57856 28840 ft 458 kts 268°
2026-05-08 13:50 30.79716 102.54139 29162 ft 460 kts 268°
2026-05-08 13:50 30.79641 102.50394 29497 ft 462 kts 268°
2026-05-08 13:50 30.79566 102.46689 29803 ft 464 kts 268°
2026-05-08 13:51 30.79488 102.42908 30049 ft 466 kts 268°
2026-05-08 13:51 30.79410 102.39131 30400 ft 467 kts 268°
2026-05-08 13:51 30.79331 102.35358 30837 ft 464 kts 268°
2026-05-08 13:51 30.79251 102.31619 31354 ft 459 kts 268°
2026-05-08 13:52 30.79171 102.27925 31879 ft 455 kts 268°
2026-05-08 13:52 30.79091 102.24248 32263 ft 454 kts 268°
2026-05-08 13:52 30.78929 102.16949 32240 ft 454 kts 268°
2026-05-08 13:53 30.78758 102.09612 32226 ft 454 kts 268°
2026-05-08 13:53 30.78587 102.02252 32222 ft 455 kts 268°
2026-05-08 13:54 30.78409 101.94916 32196 ft 455 kts 268°
2026-05-08 13:54 30.78472 101.87541 32208 ft 456 kts 274°
2026-05-08 13:55 30.79111 101.80241 32219 ft 457 kts 275°
2026-05-08 13:56 30.80055 101.69226 32177 ft 457 kts 274°
2026-05-08 13:56 30.80665 101.61837 32174 ft 458 kts 274°
2026-05-08 13:57 30.81262 101.54505 32172 ft 457 kts 274°
2026-05-08 13:57 30.81856 101.47157 32151 ft 456 kts 274°
2026-05-08 13:58 30.82448 101.39804 32145 ft 456 kts 274°
2026-05-08 13:58 30.83036 101.32458 32137 ft 455 kts 274°
2026-05-08 13:59 30.83619 101.25118 32114 ft 456 kts 274°
2026-05-08 13:59 30.84195 101.17811 32121 ft 456 kts 274°
2026-05-08 14:00 30.84770 101.10447 32110 ft 457 kts 274°
2026-05-08 14:00 30.85339 101.03099 32097 ft 457 kts 274°
2026-05-08 14:01 30.85908 100.95734 32103 ft 459 kts 274°
2026-05-08 14:01 30.86473 100.88335 32085 ft 459 kts 274°
2026-05-08 14:02 30.87034 100.80942 32100 ft 459 kts 274°
2026-05-08 14:02 30.87592 100.73555 32098 ft 458 kts 274°
2026-05-08 14:03 30.88144 100.66163 32101 ft 459 kts 274°
2026-05-08 14:03 30.88694 100.58747 32076 ft 458 kts 274°
2026-05-08 14:04 30.89234 100.51405 32083 ft 458 kts 274°
2026-05-08 14:04 30.89777 100.43989 32074 ft 458 kts 274°
2026-05-08 14:05 30.90310 100.36634 32066 ft 457 kts 274°
2026-05-08 14:05 30.90836 100.29288 32052 ft 456 kts 274°
2026-05-08 14:06 30.91363 100.21902 32061 ft 455 kts 274°
2026-05-08 14:06 30.91882 100.14555 32054 ft 455 kts 273°
2026-05-08 14:07 30.92396 100.07251 32070 ft 454 kts 273°
2026-05-08 14:07 30.92908 99.99912 32058 ft 456 kts 274°
2026-05-08 14:08 30.93472 99.92516 32061 ft 457 kts 274°
2026-05-08 14:08 30.94067 99.85143 32058 ft 457 kts 274°
2026-05-08 14:09 30.94654 99.77774 32069 ft 458 kts 274°
2026-05-08 14:09 30.95233 99.70368 32070 ft 459 kts 274°
2026-05-08 14:10 30.95806 99.62969 32068 ft 460 kts 274°
2026-05-08 14:10 30.96375 99.55552 32068 ft 460 kts 274°
2026-05-08 14:11 30.96846 99.49369 32058 ft 459 kts 274°
2026-05-08 14:11 30.97407 99.41960 32057 ft 459 kts 274°
2026-05-08 14:12 30.97961 99.34576 32064 ft 458 kts 274°
2026-05-08 14:12 30.98513 99.27171 32054 ft 458 kts 274°
2026-05-08 14:13 30.99059 99.19776 32042 ft 457 kts 274°
2026-05-08 14:13 30.99603 99.12364 32019 ft 458 kts 274°
2026-05-08 14:14 31.00140 99.04984 32021 ft 460 kts 274°
2026-05-08 14:14 31.00677 98.97540 32012 ft 460 kts 274°
2026-05-08 14:15 31.01208 98.90137 32025 ft 461 kts 274°
2026-05-08 14:15 31.01737 98.82681 32017 ft 461 kts 274°
2026-05-08 14:16 31.02264 98.75186 32001 ft 462 kts 274°
2026-05-08 14:16 31.02786 98.67756 32013 ft 462 kts 274°
2026-05-08 14:17 31.03358 98.60296 32013 ft 463 kts 274°
2026-05-08 14:17 31.04001 98.52810 32036 ft 464 kts 275°
2026-05-08 14:18 31.04639 98.45325 32038 ft 464 kts 274°
2026-05-08 14:18 31.05261 98.37827 32044 ft 465 kts 274°
2026-05-08 14:19 31.05876 98.30317 32052 ft 465 kts 274°
2026-05-08 14:19 31.06485 98.22839 32051 ft 465 kts 274°
2026-05-08 14:20 31.07094 98.15314 32068 ft 465 kts 275°
2026-05-08 14:20 31.07701 98.07789 32063 ft 466 kts 275°
2026-05-08 14:21 31.08307 98.00292 32073 ft 466 kts 275°
2026-05-08 14:21 31.08913 97.92746 32089 ft 467 kts 275°
2026-05-08 14:22 31.09514 97.85221 32084 ft 468 kts 275°
2026-05-08 14:22 31.10115 97.77634 32092 ft 469 kts 275°
2026-05-08 14:23 31.10711 97.70059 32094 ft 470 kts 275°
2026-05-08 14:23 31.11304 97.62438 32097 ft 471 kts 274°
2026-05-08 14:24 31.11891 97.54849 32097 ft 471 kts 274°
2026-05-08 14:24 31.12475 97.47239 32094 ft 472 kts 274°
2026-05-08 14:25 31.13059 97.39587 32078 ft 471 kts 274°
2026-05-08 14:25 31.13635 97.31966 32080 ft 471 kts 274°
2026-05-08 14:26 31.14202 97.24400 32091 ft 471 kts 274°
2026-05-08 14:26 31.14131 97.16746 32094 ft 471 kts 264°
2026-05-08 14:27 31.12973 97.09245 32087 ft 470 kts 256°
2026-05-08 14:27 31.11348 97.01865 32107 ft 471 kts 256°
2026-05-08 14:28 31.09719 96.94493 32101 ft 470 kts 256°
2026-05-08 14:28 31.08106 96.87077 32098 ft 470 kts 256°
2026-05-08 14:29 31.06515 96.79724 32109 ft 470 kts 256°
2026-05-08 14:29 31.04909 96.72315 32118 ft 470 kts 256°
2026-05-08 14:30 31.03308 96.64965 32112 ft 469 kts 256°
2026-05-08 14:30 31.01698 96.57594 32115 ft 468 kts 256°
2026-05-08 14:31 31.00085 96.50233 32104 ft 468 kts 256°
2026-05-08 14:31 30.98479 96.42913 32108 ft 468 kts 256°
2026-05-08 14:32 30.96117 96.31860 32106 ft 467 kts 256°
2026-05-08 14:32 30.94570 96.24521 32097 ft 467 kts 256°
2026-05-08 14:33 30.93022 96.17222 32104 ft 467 kts 256°
2026-05-08 14:33 30.91451 96.09870 32109 ft 466 kts 256°
2026-05-08 14:34 30.89888 96.02566 32108 ft 466 kts 256°
2026-05-08 14:34 30.88314 95.95237 32108 ft 465 kts 256°
2026-05-08 14:35 30.86740 95.87924 32129 ft 465 kts 256°
2026-05-08 14:35 30.85161 95.80612 32101 ft 465 kts 256°
2026-05-08 14:36 30.83588 95.73346 32116 ft 465 kts 256°
2026-05-08 14:36 30.82063 95.66060 32108 ft 464 kts 257°
2026-05-08 14:37 30.80565 95.58718 32115 ft 465 kts 257°
2026-05-08 14:37 30.79071 95.51435 32135 ft 465 kts 257°
2026-05-08 14:38 30.77556 95.44111 32127 ft 466 kts 256°
2026-05-08 14:38 30.76029 95.36764 32144 ft 466 kts 256°
2026-05-08 14:39 30.74511 95.29482 32156 ft 467 kts 256°
2026-05-08 14:39 30.72974 95.22131 32160 ft 467 kts 256°
2026-05-08 14:40 30.71433 95.14785 32175 ft 468 kts 256°
2026-05-08 14:40 30.69892 95.07460 32178 ft 468 kts 256°
2026-05-08 14:41 30.68340 95.00101 32204 ft 469 kts 256°
2026-05-08 14:41 30.66780 94.92731 32207 ft 469 kts 256°
2026-05-08 14:42 30.65226 94.85407 32206 ft 471 kts 256°
2026-05-08 14:42 30.63650 94.78007 32209 ft 470 kts 256°
2026-05-08 14:43 30.62076 94.70631 32195 ft 470 kts 256°
2026-05-08 14:43 30.60507 94.63301 32197 ft 471 kts 255°
2026-05-08 14:44 30.58917 94.55898 32209 ft 471 kts 255°
2026-05-08 14:44 30.57332 94.48535 32200 ft 471 kts 255°
2026-05-08 14:45 30.55738 94.41160 32207 ft 471 kts 255°
2026-05-08 14:45 30.54153 94.33841 32199 ft 470 kts 255°
2026-05-08 14:46 30.52554 94.26482 32217 ft 470 kts 255°
2026-05-08 14:46 30.50953 94.19125 32193 ft 470 kts 255°
2026-05-08 14:47 30.49406 94.11728 32183 ft 471 kts 256°
2026-05-08 14:47 30.47887 94.04338 32179 ft 470 kts 256°
2026-05-08 14:48 30.46362 93.96976 32169 ft 470 kts 256°
2026-05-08 14:48 30.44834 93.89649 32172 ft 471 kts 256°
2026-05-08 14:49 30.43290 93.82276 32163 ft 470 kts 256°
2026-05-08 14:49 30.41743 93.74909 32157 ft 471 kts 256°
2026-05-08 14:50 30.40192 93.67538 32155 ft 471 kts 256°
2026-05-08 14:50 30.38518 93.60209 32156 ft 471 kts 251°
2026-05-08 14:51 30.35934 93.53216 32163 ft 472 kts 244°
2026-05-08 14:51 30.33094 93.46342 32140 ft 473 kts 244°
2026-05-08 14:52 30.28880 93.36054 32134 ft 473 kts 245°
2026-05-08 14:53 30.26060 93.29132 32124 ft 474 kts 245°
2026-05-08 14:53 30.23259 93.22263 32126 ft 475 kts 244°
2026-05-08 14:54 30.20432 93.15342 32129 ft 475 kts 244°
2026-05-08 14:54 30.17599 93.08424 32111 ft 476 kts 244°
2026-05-08 14:55 30.14772 93.01533 32121 ft 476 kts 244°
2026-05-08 14:55 30.11930 92.94616 32117 ft 476 kts 244°
2026-05-08 14:56 30.09085 92.87706 32116 ft 476 kts 244°
2026-05-08 14:56 30.06253 92.80841 32100 ft 476 kts 244°
2026-05-08 14:57 30.03402 92.73944 32118 ft 476 kts 244°
2026-05-08 14:57 30.00546 92.67044 32119 ft 476 kts 244°
2026-05-08 14:58 29.97687 92.60151 32119 ft 476 kts 244°
2026-05-08 14:58 29.94821 92.53253 32127 ft 476 kts 244°
2026-05-08 14:59 29.91967 92.46397 32126 ft 476 kts 244°
2026-05-08 14:59 29.87656 92.36066 32124 ft 477 kts 244°
2026-05-08 15:00 29.84775 92.29178 32113 ft 477 kts 244°
2026-05-08 15:00 29.81909 92.22338 32116 ft 477 kts 244°
2026-05-08 15:01 29.79015 92.15440 32096 ft 476 kts 244°
2026-05-08 15:01 29.76152 92.08632 32087 ft 475 kts 244°
2026-05-08 15:02 29.73264 92.01775 32081 ft 474 kts 244°
2026-05-08 15:02 29.70393 91.94973 32054 ft 474 kts 244°
2026-05-08 15:03 29.67520 91.88175 32046 ft 473 kts 244°
2026-05-08 15:03 29.65122 91.82512 32037 ft 473 kts 244°
2026-05-08 15:04 29.62237 91.75709 32025 ft 472 kts 244°
2026-05-08 15:04 29.59356 91.68928 32008 ft 471 kts 244°
2026-05-08 15:05 29.56490 91.62196 32004 ft 471 kts 244°
2026-05-08 15:05 29.53606 91.55429 31998 ft 471 kts 244°
2026-05-08 15:06 29.50726 91.48687 31987 ft 471 kts 244°
2026-05-08 15:06 29.47842 91.41946 31962 ft 470 kts 244°
2026-05-08 15:07 29.44963 91.35229 31963 ft 470 kts 244°
2026-05-08 15:07 29.42075 91.28500 31959 ft 470 kts 244°
2026-05-08 15:08 29.39183 91.21776 31950 ft 469 kts 244°
2026-05-08 15:08 29.36289 91.15055 31956 ft 470 kts 244°
2026-05-08 15:09 29.33403 91.08366 31955 ft 470 kts 244°
2026-05-08 15:09 29.30873 91.01498 31952 ft 470 kts 255°
2026-05-08 15:10 29.29862 90.94084 31965 ft 472 kts 267°
2026-05-08 15:10 29.30113 90.86592 31966 ft 474 kts 271°
2026-05-08 15:11 29.30482 90.79057 31967 ft 474 kts 271°
2026-05-08 15:11 29.30807 90.71487 31976 ft 474 kts 271°
2026-05-08 15:12 29.31096 90.63961 31980 ft 475 kts 271°
2026-05-08 15:12 29.31374 90.56423 31988 ft 475 kts 271°
2026-05-08 15:13 29.31652 90.48840 32004 ft 476 kts 271°
2026-05-08 15:13 29.31926 90.41305 32019 ft 476 kts 271°
2026-05-08 15:14 29.32196 90.33727 32028 ft 477 kts 271°
2026-05-08 15:14 29.32465 90.26107 32033 ft 478 kts 271°
2026-05-08 15:15 29.32728 90.18477 32179 ft 481 kts 271°
2026-05-08 15:15 29.32857 90.14662 32616 ft 478 kts 271°
2026-05-08 15:15 29.32984 90.10868 33131 ft 474 kts 271°
2026-05-08 15:16 29.33108 90.07109 33627 ft 470 kts 271°
2026-05-08 15:16 29.33230 90.03382 34044 ft 468 kts 271°
2026-05-08 15:16 29.33470 89.95935 34069 ft 469 kts 271°
2026-05-08 15:17 29.33708 89.88425 34075 ft 471 kts 271°
2026-05-08 15:17 29.33943 89.80899 34065 ft 473 kts 271°
2026-05-08 15:18 29.34174 89.73368 34068 ft 474 kts 271°
2026-05-08 15:18 29.34402 89.65801 34054 ft 476 kts 271°
2026-05-08 15:19 29.34626 89.58232 34052 ft 478 kts 271°
2026-05-08 15:19 29.34848 89.50581 34043 ft 479 kts 271°
2026-05-08 15:20 29.35065 89.42978 34035 ft 480 kts 271°
2026-05-08 15:20 29.35279 89.35322 34033 ft 481 kts 271°
2026-05-08 15:21 29.34530 89.27788 34025 ft 479 kts 249°
2026-05-08 15:21 29.33078 89.24347 34029 ft 480 kts 237°
2026-05-08 15:21 29.31015 89.21357 34011 ft 478 kts 227°
2026-05-08 15:22 29.26407 89.15846 34004 ft 478 kts 227°
2026-05-08 15:22 29.21861 89.10371 33996 ft 475 kts 227°
2026-05-08 15:23 29.17359 89.04872 33988 ft 473 kts 228°
2026-05-08 15:23 29.12863 88.99348 33990 ft 473 kts 228°
2026-05-08 15:24 29.08379 88.93842 33984 ft 472 kts 228°
2026-05-08 15:24 29.03916 88.88375 33991 ft 471 kts 228°
2026-05-08 15:25 28.99472 88.82937 33999 ft 469 kts 228°
2026-05-08 15:25 28.95017 88.77497 34007 ft 468 kts 228°
2026-05-08 15:26 28.90570 88.72073 34026 ft 466 kts 228°
2026-05-08 15:26 28.86139 88.66675 34040 ft 465 kts 228°
2026-05-08 15:27 28.81744 88.61327 34051 ft 463 kts 228°
2026-05-08 15:27 28.77338 88.55974 34050 ft 461 kts 228°
2026-05-08 15:28 28.72970 88.50674 34074 ft 460 kts 228°
2026-05-08 15:28 28.68575 88.45348 34088 ft 459 kts 228°
2026-05-08 15:29 28.64200 88.40052 34077 ft 460 kts 228°
2026-05-08 15:29 28.59837 88.34779 34082 ft 459 kts 228°
2026-05-08 15:30 28.55459 88.29493 34086 ft 459 kts 228°
2026-05-08 15:30 28.51079 88.24213 34081 ft 458 kts 228°
2026-05-08 15:31 28.46724 88.18969 34078 ft 457 kts 228°
2026-05-08 15:31 28.42357 88.13715 34084 ft 456 kts 228°
2026-05-08 15:32 28.37999 88.08482 34089 ft 455 kts 228°
2026-05-08 15:32 28.33651 88.03266 34103 ft 454 kts 228°
2026-05-08 15:33 28.29296 87.98049 34102 ft 454 kts 228°
2026-05-08 15:33 28.24969 87.92870 34125 ft 453 kts 228°
2026-05-08 15:34 28.20625 87.87673 34162 ft 453 kts 228°
2026-05-08 15:34 28.16285 87.82489 34172 ft 453 kts 228°
2026-05-08 15:35 28.11957 87.77327 34211 ft 453 kts 228°
2026-05-08 15:35 28.07627 87.72170 34199 ft 453 kts 228°
2026-05-08 15:36 28.04010 87.67864 34199 ft 452 kts 228°
2026-05-08 15:36 27.98956 87.61856 34239 ft 451 kts 228°
2026-05-08 15:37 27.94631 87.56724 34238 ft 451 kts 228°
2026-05-08 15:37 27.90301 87.51587 34204 ft 450 kts 228°
2026-05-08 15:38 27.85956 87.46574 34216 ft 451 kts 223°
2026-05-08 15:38 27.80808 87.42462 34219 ft 454 kts 214°
2026-05-08 15:39 27.75085 87.39395 34187 ft 455 kts 206°
2026-05-08 15:39 27.69236 87.36763 34191 ft 456 kts 206°
2026-05-08 15:40 27.63363 87.34095 34154 ft 452 kts 206°
2026-05-08 15:40 27.57517 87.31411 34141 ft 454 kts 207°
2026-05-08 15:41 27.51702 87.28729 34102 ft 454 kts 206°
2026-05-08 15:41 27.45863 87.26046 34113 ft 454 kts 207°
2026-05-08 15:42 27.40057 87.23253 34079 ft 447 kts 215°
2026-05-08 15:42 27.37657 87.21102 34077 ft 442 kts 230°
2026-05-08 15:42 27.35875 87.18289 34085 ft 440 kts 243°
2026-05-08 15:43 27.33939 87.11817 34083 ft 441 kts 258°
2026-05-08 15:43 27.33683 87.08368 34064 ft 445 kts 272°
2026-05-08 15:43 27.34230 87.04910 34067 ft 449 kts 278°
2026-05-08 15:44 27.35702 86.98062 34086 ft 454 kts 279°
2026-05-08 15:44 27.37170 86.91180 34098 ft 454 kts 279°
2026-05-08 15:45 27.38566 86.84250 34086 ft 453 kts 279°
2026-05-08 15:45 27.39922 86.77321 34117 ft 453 kts 278°
2026-05-08 15:46 27.41275 86.70380 34130 ft 454 kts 278°
2026-05-08 15:46 27.42617 86.63475 34110 ft 452 kts 278°
2026-05-08 15:47 27.43967 86.56532 34123 ft 452 kts 279°
2026-05-08 15:47 27.45304 86.49633 34133 ft 455 kts 279°
2026-05-08 15:48 27.47328 86.39146 34112 ft 456 kts 279°
2026-05-08 15:49 27.48670 86.32171 34125 ft 456 kts 279°
2026-05-08 15:49 27.50007 86.25211 34116 ft 456 kts 279°
2026-05-08 15:50 27.51372 86.18227 34117 ft 457 kts 279°
2026-05-08 15:50 27.52744 86.11227 34101 ft 456 kts 279°
2026-05-08 15:51 27.54106 86.04246 34096 ft 458 kts 279°
2026-05-08 15:51 27.55468 85.97236 34100 ft 457 kts 279°
2026-05-08 15:52 27.56818 85.90264 34105 ft 458 kts 279°
2026-05-08 15:52 27.58172 85.83241 34098 ft 460 kts 279°
2026-05-08 15:53 27.59532 85.76179 34096 ft 459 kts 279°
2026-05-08 15:53 27.60880 85.69149 34093 ft 459 kts 279°
2026-05-08 15:54 27.62225 85.62129 34114 ft 461 kts 280°
2026-05-08 15:54 27.63576 85.55056 34134 ft 461 kts 279°
2026-05-08 15:55 27.64919 85.47996 34119 ft 461 kts 280°
2026-05-08 15:55 27.66921 85.37357 34129 ft 462 kts 278°
2026-05-08 15:56 27.67515 85.30192 34133 ft 460 kts 269°
2026-05-08 15:56 27.67528 85.24153 34128 ft 461 kts 269°
2026-05-08 15:57 27.67550 85.16919 34118 ft 461 kts 269°
2026-05-08 15:57 27.67592 85.09692 34096 ft 461 kts 269°
2026-05-08 15:58 27.67642 85.02418 34065 ft 462 kts 269°
2026-05-08 15:58 27.67688 84.95213 34046 ft 463 kts 269°
2026-05-08 15:59 27.67730 84.87942 34024 ft 463 kts 269°
2026-05-08 15:59 27.67766 84.80651 34011 ft 463 kts 269°
2026-05-08 16:00 27.67801 84.73425 34011 ft 464 kts 269°
2026-05-08 16:00 27.67830 84.66150 33999 ft 464 kts 269°
2026-05-08 16:01 27.67856 84.58847 33984 ft 464 kts 269°
2026-05-08 16:01 27.67879 84.51572 33974 ft 464 kts 269°
2026-05-08 16:02 27.68208 84.44337 33969 ft 466 kts 277°
2026-05-08 16:02 27.69606 84.37154 33964 ft 469 kts 286°
2026-05-08 16:03 27.71726 84.30198 33973 ft 470 kts 287°
2026-05-08 16:03 27.73904 84.23209 33961 ft 471 kts 287°
2026-05-08 16:04 27.76047 84.16223 33968 ft 471 kts 287°
2026-05-08 16:04 27.78160 84.09258 33953 ft 471 kts 287°
2026-05-08 16:05 27.80277 84.02246 33961 ft 472 kts 287°
2026-05-08 16:05 27.82398 83.95210 33962 ft 473 kts 287°
2026-05-08 16:06 27.84521 83.88161 33965 ft 473 kts 287°
2026-05-08 16:06 27.86634 83.81127 33968 ft 473 kts 287°
2026-05-08 16:07 27.88742 83.74097 33977 ft 474 kts 287°
2026-05-08 16:07 27.90860 83.67013 33965 ft 475 kts 287°
2026-05-08 16:08 27.92962 83.59972 33979 ft 475 kts 287°
2026-05-08 16:08 27.95085 83.52858 33976 ft 475 kts 288°
2026-05-08 16:09 27.97411 83.45897 33971 ft 475 kts 290°
2026-05-08 16:09 27.99860 83.38978 33975 ft 475 kts 290°
2026-05-08 16:10 28.02300 83.32008 33982 ft 475 kts 290°
2026-05-08 16:10 28.04702 83.25033 33982 ft 475 kts 289°
2026-05-08 16:11 28.07092 83.18037 33982 ft 475 kts 289°
2026-05-08 16:11 28.09468 83.11081 33987 ft 475 kts 289°
2026-05-08 16:12 28.11855 83.04072 33981 ft 475 kts 290°
2026-05-08 16:12 28.14222 82.97117 33996 ft 476 kts 289°
2026-05-08 16:13 28.16605 82.90100 33987 ft 476 kts 289°
2026-05-08 16:13 28.18964 82.83140 33985 ft 475 kts 289°
2026-05-08 16:14 28.21333 82.76140 33993 ft 475 kts 289°
2026-05-08 16:14 28.23699 82.69128 33999 ft 475 kts 289°
2026-05-08 16:15 28.26049 82.62154 34002 ft 475 kts 289°
2026-05-08 16:15 28.28412 82.55129 33984 ft 476 kts 289°
2026-05-08 16:16 28.30759 82.48135 33989 ft 475 kts 289°
2026-05-08 16:16 28.33111 82.41113 33989 ft 476 kts 289°
2026-05-08 16:17 28.35069 82.35260 33994 ft 476 kts 289°
2026-05-08 16:17 28.37809 82.27049 33980 ft 476 kts 289°
2026-05-08 16:18 28.40135 82.20060 33969 ft 476 kts 289°
2026-05-08 16:18 28.42471 82.13036 33974 ft 476 kts 289°
2026-05-08 16:19 28.44808 82.05989 33967 ft 476 kts 289°
2026-05-08 16:19 28.47140 81.98942 33968 ft 476 kts 289°
2026-05-08 16:20 28.49469 81.91894 33964 ft 475 kts 289°
2026-05-08 16:20 28.51778 81.84889 33967 ft 476 kts 289°
2026-05-08 16:21 28.54108 81.77807 33958 ft 476 kts 289°
2026-05-08 16:21 28.56423 81.70756 33947 ft 476 kts 289°
2026-05-08 16:22 28.58713 81.63747 33947 ft 475 kts 288°
2026-05-08 16:22 28.60661 81.56547 33934 ft 475 kts 285°
2026-05-08 16:23 28.62489 81.49320 33926 ft 475 kts 285°
2026-05-08 16:23 28.64314 81.42123 33923 ft 475 kts 285°
2026-05-08 16:24 28.66163 81.34886 33913 ft 474 kts 285°
2026-05-08 16:24 28.68008 81.27672 33914 ft 474 kts 286°
2026-05-08 16:25 28.69851 81.20459 33904 ft 474 kts 286°
2026-05-08 16:25 28.71678 81.13288 33908 ft 474 kts 286°
2026-05-08 16:26 28.73514 81.06053 33902 ft 475 kts 286°
2026-05-08 16:26 28.75344 80.98830 33906 ft 474 kts 286°
2026-05-08 16:27 28.77172 80.91597 33905 ft 474 kts 286°
2026-05-08 16:27 28.78994 80.84368 33910 ft 474 kts 286°
2026-05-08 16:28 28.80811 80.77143 33908 ft 474 kts 286°
2026-05-08 16:28 28.82611 80.69966 33914 ft 474 kts 286°
2026-05-08 16:29 28.84423 80.62725 33907 ft 473 kts 286°
2026-05-08 16:29 28.86225 80.55508 33908 ft 473 kts 286°
2026-05-08 16:30 28.88022 80.48286 33901 ft 473 kts 286°
2026-05-08 16:30 28.89819 80.41053 33901 ft 473 kts 286°
2026-05-08 16:31 28.91609 80.33825 33897 ft 473 kts 286°
2026-05-08 16:31 28.93385 80.26637 33888 ft 473 kts 286°
2026-05-08 16:32 28.95168 80.19406 33888 ft 473 kts 286°
2026-05-08 16:32 28.96675 80.12100 33886 ft 473 kts 278°
2026-05-08 16:33 28.97417 80.04628 33888 ft 474 kts 277°
2026-05-08 16:33 28.98146 79.97138 33884 ft 474 kts 277°
2026-05-08 16:34 28.98896 79.89662 33884 ft 474 kts 277°
2026-05-08 16:34 28.99650 79.82189 33883 ft 474 kts 277°
2026-05-08 16:35 29.00400 79.74720 33884 ft 473 kts 277°
2026-05-08 16:35 29.01144 79.67248 33876 ft 473 kts 277°
2026-05-08 16:36 29.01885 79.59770 33877 ft 473 kts 277°
2026-05-08 16:36 29.02577 79.52295 33875 ft 473 kts 273°
2026-05-08 16:37 29.01938 79.44811 33878 ft 476 kts 259°
2026-05-08 16:37 28.99808 79.37666 33864 ft 480 kts 250°
2026-05-08 16:38 28.97239 79.30620 33858 ft 480 kts 250°
2026-05-08 16:38 28.94684 79.23581 33858 ft 480 kts 250°
2026-05-08 16:39 28.92161 79.16523 33855 ft 480 kts 251°
2026-05-08 16:39 28.89650 79.09458 33856 ft 480 kts 251°
2026-05-08 16:40 28.87137 79.02394 33850 ft 480 kts 251°
2026-05-08 16:40 28.84618 78.95335 33850 ft 480 kts 251°
2026-05-08 16:41 28.82092 78.88271 33852 ft 480 kts 251°
2026-05-08 16:42 28.78318 78.77745 33852 ft 480 kts 251°
2026-05-08 16:42 28.75785 78.70695 33853 ft 480 kts 251°
2026-05-08 16:43 28.73241 78.63629 33848 ft 485 kts 251°
2026-05-08 16:43 28.70660 78.56468 33849 ft 490 kts 251°
2026-05-08 16:44 28.68068 78.49305 33843 ft 488 kts 251°
2026-05-08 16:44 28.65922 78.43381 33847 ft 487 kts 251°
2026-05-08 16:45 28.62901 78.35053 33852 ft 487 kts 251°
2026-05-08 16:45 28.60746 78.29123 33849 ft 487 kts 251°
2026-05-08 16:46 28.57732 78.20849 33849 ft 487 kts 251°
2026-05-08 16:46 28.55554 78.14881 33851 ft 486 kts 251°
2026-05-08 16:47 28.52959 78.07783 33851 ft 486 kts 251°
2026-05-08 16:47 28.50362 78.00691 33849 ft 485 kts 251°
2026-05-08 16:48 28.47781 77.93657 33848 ft 485 kts 251°
2026-05-08 16:48 28.45182 77.86584 33866 ft 485 kts 252°
2026-05-08 16:49 28.42581 77.79519 33862 ft 484 kts 252°
2026-05-08 16:49 28.40537 77.72329 33859 ft 473 kts 268°
2026-05-08 16:50 28.40932 77.64983 33866 ft 464 kts 289°
2026-05-08 16:50 28.42943 77.58036 33868 ft 463 kts 291°
2026-05-08 16:51 28.44985 77.51101 33866 ft 462 kts 291°
2026-05-08 16:51 28.46967 77.44158 33869 ft 461 kts 291°
2026-05-08 16:52 28.48920 77.37212 33877 ft 461 kts 290°
2026-05-08 16:52 28.50866 77.30273 33885 ft 461 kts 290°
2026-05-08 16:53 28.53781 77.19860 33883 ft 460 kts 290°
2026-05-08 16:53 28.55719 77.12925 33886 ft 460 kts 290°
2026-05-08 16:54 28.57348 77.05881 33892 ft 462 kts 284°
2026-05-08 16:54 28.58496 76.98685 33885 ft 462 kts 284°
2026-05-08 16:55 28.59642 76.91533 33880 ft 462 kts 284°
2026-05-08 16:55 28.60812 76.84353 33880 ft 461 kts 284°
2026-05-08 16:56 28.61984 76.77177 33874 ft 461 kts 284°
2026-05-08 16:56 28.63150 76.70004 33870 ft 460 kts 284°
2026-05-08 16:57 28.64310 76.62843 33868 ft 460 kts 284°
2026-05-08 16:57 28.65390 76.55657 33868 ft 460 kts 283°
2026-05-08 16:58 28.66416 76.48455 33863 ft 460 kts 283°
2026-05-08 16:58 28.67446 76.41259 33862 ft 460 kts 283°
2026-05-08 16:59 28.68480 76.34070 33864 ft 459 kts 283°
2026-05-08 16:59 28.69505 76.26937 33863 ft 459 kts 283°
2026-05-08 17:00 28.70534 76.19749 33856 ft 459 kts 283°
2026-05-08 17:00 28.71557 76.12570 33849 ft 459 kts 283°
2026-05-08 17:01 28.72575 76.05396 33849 ft 458 kts 283°
2026-05-08 17:01 28.73589 75.98233 33849 ft 458 kts 283°
2026-05-08 17:02 28.74549 75.91061 33846 ft 459 kts 280°
2026-05-08 17:02 28.74676 75.83743 33845 ft 466 kts 270°
2026-05-08 17:03 28.74030 75.76391 33835 ft 466 kts 269°
2026-05-08 17:03 28.73348 75.69030 33837 ft 467 kts 269°
2026-05-08 17:04 28.72687 75.61719 33845 ft 467 kts 270°
2026-05-08 17:04 28.72034 75.54372 33828 ft 466 kts 270°
2026-05-08 17:05 28.71383 75.47033 33832 ft 465 kts 270°
2026-05-08 17:05 28.70728 75.39700 33825 ft 465 kts 270°
2026-05-08 17:06 28.70067 75.32364 33830 ft 465 kts 270°
2026-05-08 17:06 28.69403 75.25030 33821 ft 465 kts 270°
2026-05-08 17:07 28.68733 75.17690 33829 ft 465 kts 270°
2026-05-08 17:07 28.68061 75.10364 33819 ft 465 kts 270°
2026-05-08 17:08 28.67385 75.03028 33828 ft 465 kts 270°
2026-05-08 17:08 28.66705 74.95699 33826 ft 466 kts 270°
2026-05-08 17:09 28.66019 74.88358 33827 ft 466 kts 270°
2026-05-08 17:09 28.65333 74.81055 33827 ft 467 kts 270°
2026-05-08 17:10 28.64638 74.73695 33824 ft 467 kts 270°
2026-05-08 17:10 28.63938 74.66333 33825 ft 468 kts 270°
2026-05-08 17:11 28.63234 74.58962 33820 ft 468 kts 270°
2026-05-08 17:11 28.62525 74.51586 33811 ft 469 kts 270°
2026-05-08 17:12 28.61812 74.44204 33811 ft 469 kts 270°
2026-05-08 17:12 28.61092 74.36813 33813 ft 470 kts 271°
2026-05-08 17:13 28.60369 74.29415 33809 ft 470 kts 271°
2026-05-08 17:13 28.59646 74.22058 33805 ft 470 kts 271°
2026-05-08 17:14 28.58914 74.14664 33804 ft 470 kts 271°
2026-05-08 17:14 28.58179 74.07272 33802 ft 470 kts 271°
2026-05-08 17:15 28.57438 73.99868 33801 ft 470 kts 271°
2026-05-08 17:15 28.56696 73.92482 33799 ft 470 kts 271°
2026-05-08 17:16 28.55955 73.85148 33797 ft 469 kts 271°
2026-05-08 17:16 28.55241 73.77781 33796 ft 466 kts 274°
2026-05-08 17:17 28.54905 73.70453 33787 ft 464 kts 275°
2026-05-08 17:17 28.54628 73.63131 33780 ft 463 kts 275°
2026-05-08 17:18 28.54335 73.55810 33780 ft 463 kts 275°
2026-05-08 17:18 28.54024 73.48504 33780 ft 462 kts 275°
2026-05-08 17:19 28.53705 73.41196 33781 ft 462 kts 275°
2026-05-08 17:19 28.53384 73.33957 33781 ft 461 kts 275°
2026-05-08 17:20 28.53059 73.26679 33780 ft 460 kts 275°
2026-05-08 17:20 28.52730 73.19404 33777 ft 460 kts 275°
2026-05-08 17:21 28.52398 73.12146 33770 ft 459 kts 275°
2026-05-08 17:21 28.52062 73.04892 33771 ft 459 kts 275°
2026-05-08 17:22 28.51723 72.97644 33775 ft 458 kts 275°
2026-05-08 17:22 28.51383 72.90465 33775 ft 457 kts 275°
2026-05-08 17:23 28.51038 72.83239 33773 ft 457 kts 275°
2026-05-08 17:23 28.50689 72.76030 33767 ft 457 kts 275°
2026-05-08 17:24 28.50336 72.68825 33768 ft 456 kts 275°
2026-05-08 17:24 28.49980 72.61629 33766 ft 455 kts 275°
2026-05-08 17:25 28.49620 72.54433 33759 ft 455 kts 275°
2026-05-08 17:25 28.49258 72.47261 33761 ft 454 kts 275°
2026-05-08 17:26 28.48892 72.40093 33770 ft 454 kts 275°
2026-05-08 17:26 28.48524 72.32932 33760 ft 453 kts 275°
2026-05-08 17:27 28.48509 72.29399 33754 ft 439 kts 286°
2026-05-08 17:27 28.49271 72.26156 33772 ft 427 kts 298°
2026-05-08 17:27 28.52298 72.20446 33763 ft 421 kts 316°
2026-05-08 17:28 28.56667 72.16050 33769 ft 420 kts 321°
2026-05-08 17:28 28.61091 72.11702 33765 ft 419 kts 321°
2026-05-08 17:29 28.65475 72.07332 33770 ft 418 kts 320°
2026-05-08 17:29 28.69834 72.02949 33770 ft 418 kts 320°
2026-05-08 17:30 28.74187 71.98557 33772 ft 418 kts 320°
2026-05-08 17:30 28.78515 71.94185 33765 ft 417 kts 320°
2026-05-08 17:31 28.82855 71.89796 33765 ft 417 kts 320°
2026-05-08 17:31 28.87195 71.85402 33768 ft 416 kts 320°
2026-05-08 17:32 28.90795 71.81754 33767 ft 416 kts 320°
2026-05-08 17:32 28.95124 71.77363 33774 ft 416 kts 320°
2026-05-08 17:33 28.99452 71.72966 33776 ft 416 kts 320°
2026-05-08 17:33 29.03772 71.68574 33777 ft 415 kts 320°
2026-05-08 17:34 29.08061 71.64207 33778 ft 415 kts 320°
2026-05-08 17:34 29.12379 71.59806 33779 ft 415 kts 320°
2026-05-08 17:35 29.16689 71.55407 33780 ft 415 kts 320°
2026-05-08 17:35 29.20996 71.51007 33781 ft 415 kts 320°
2026-05-08 17:36 29.25302 71.46602 33785 ft 415 kts 320°
2026-05-08 17:36 29.29608 71.42192 33783 ft 415 kts 320°
2026-05-08 17:37 29.33927 71.37805 33784 ft 415 kts 320°
2026-05-08 17:37 29.38251 71.33426 33781 ft 415 kts 320°
2026-05-08 17:38 29.42575 71.29039 33788 ft 415 kts 320°
2026-05-08 17:38 29.46879 71.24662 33776 ft 416 kts 320°
2026-05-08 17:39 29.51211 71.20251 33784 ft 416 kts 320°
2026-05-08 17:39 29.55542 71.15834 33786 ft 416 kts 320°
2026-05-08 17:40 29.59879 71.11407 33790 ft 417 kts 320°
2026-05-08 17:40 29.64218 71.06972 33785 ft 417 kts 320°
2026-05-08 17:41 29.68571 71.02523 33791 ft 418 kts 320°
2026-05-08 17:41 29.73024 70.98292 33792 ft 418 kts 322°
2026-05-08 17:42 29.77570 70.94109 33795 ft 419 kts 322°
2026-05-08 17:42 29.82108 70.89896 33792 ft 419 kts 321°
2026-05-08 17:43 29.86639 70.85653 33791 ft 420 kts 321°
2026-05-08 17:43 29.91168 70.81398 33798 ft 420 kts 321°
2026-05-08 17:44 29.95693 70.77140 33797 ft 420 kts 321°
2026-05-08 17:44 30.00224 70.72873 33802 ft 421 kts 321°
2026-05-08 17:45 30.04760 70.68596 33803 ft 421 kts 321°
2026-05-08 17:45 30.09302 70.64308 33809 ft 422 kts 321°
2026-05-08 17:46 30.13845 70.60014 33814 ft 422 kts 321°
2026-05-08 17:46 30.18389 70.55713 33821 ft 422 kts 321°
2026-05-08 17:47 30.22942 70.51403 33832 ft 423 kts 321°
2026-05-08 17:47 30.26757 70.47867 33843 ft 423 kts 322°
2026-05-08 17:48 30.32112 70.42948 33850 ft 423 kts 322°
2026-05-08 17:48 30.36724 70.38698 33864 ft 424 kts 322°
2026-05-08 17:49 30.41338 70.34431 33874 ft 425 kts 322°
2026-05-08 17:49 30.45963 70.30146 33891 ft 426 kts 321°
2026-05-08 17:50 30.50585 70.25857 33905 ft 426 kts 321°
2026-05-08 17:50 30.55217 70.21554 33912 ft 426 kts 321°
2026-05-08 17:51 30.59839 70.17255 33942 ft 426 kts 321°
2026-05-08 17:51 30.64446 70.12965 33929 ft 426 kts 321°
2026-05-08 17:52 30.69070 70.08653 33926 ft 426 kts 321°
2026-05-08 17:53 30.76009 70.02174 33944 ft 427 kts 321°
2026-05-08 17:53 30.80640 69.97842 33959 ft 428 kts 321°
2026-05-08 17:54 30.85284 69.93492 33970 ft 428 kts 321°
2026-05-08 17:54 30.89923 69.89141 33993 ft 428 kts 321°
2026-05-08 17:55 30.94556 69.84791 33991 ft 428 kts 321°
2026-05-08 17:55 30.99159 69.80463 33995 ft 428 kts 321°
2026-05-08 17:56 31.03798 69.76096 33993 ft 429 kts 321°
2026-05-08 17:56 31.08449 69.71712 34002 ft 429 kts 321°
2026-05-08 17:57 31.13084 69.67337 33998 ft 428 kts 321°
2026-05-08 17:57 31.17713 69.62961 33991 ft 428 kts 321°
2026-05-08 17:58 31.22339 69.58583 33998 ft 429 kts 321°
2026-05-08 17:58 31.26947 69.54217 34005 ft 429 kts 321°
2026-05-08 17:59 31.31580 69.49821 33993 ft 428 kts 321°
2026-05-08 17:59 31.36017 69.45178 33995 ft 429 kts 315°
2026-05-08 18:00 31.39855 69.39807 33991 ft 430 kts 310°
2026-05-08 18:00 31.45410 69.31559 33984 ft 430 kts 310°
2026-05-08 18:01 31.49112 69.26085 33985 ft 431 kts 310°
2026-05-08 18:01 31.52835 69.20579 33993 ft 431 kts 310°
2026-05-08 18:02 31.55938 69.15983 34016 ft 431 kts 310°
2026-05-08 18:02 31.60289 69.09531 33998 ft 430 kts 310°
2026-05-08 18:03 31.64005 69.04011 34004 ft 431 kts 310°
2026-05-08 18:03 31.67736 68.98485 34013 ft 432 kts 311°
2026-05-08 18:04 31.71569 68.93107 34005 ft 433 kts 311°
2026-05-08 18:04 31.75465 68.87718 34005 ft 432 kts 311°
2026-05-08 18:05 31.79335 68.82329 34013 ft 431 kts 311°
2026-05-08 18:05 31.83189 68.76930 34017 ft 431 kts 311°
2026-05-08 18:06 31.87040 68.71519 34029 ft 431 kts 311°
2026-05-08 18:06 31.90894 68.66095 34019 ft 432 kts 311°
2026-05-08 18:07 31.94723 68.60700 34024 ft 432 kts 311°
2026-05-08 18:07 31.98578 68.55260 34023 ft 432 kts 311°
2026-05-08 18:08 32.02426 68.49822 34038 ft 432 kts 311°
2026-05-08 18:08 32.06273 68.44378 34031 ft 432 kts 311°
2026-05-08 18:09 32.10122 68.38925 34008 ft 433 kts 311°
2026-05-08 18:09 32.13973 68.33458 34001 ft 433 kts 311°
2026-05-08 18:10 32.17827 68.27980 34006 ft 433 kts 310°
2026-05-08 18:10 32.21652 68.22536 33997 ft 433 kts 310°
2026-05-08 18:11 32.25504 68.17045 33987 ft 434 kts 310°
2026-05-08 18:11 32.29349 68.11555 33975 ft 434 kts 310°
2026-05-08 18:12 32.33202 68.06048 33964 ft 434 kts 310°
2026-05-08 18:12 32.37057 68.00529 33957 ft 434 kts 310°
2026-05-08 18:13 32.40899 67.95018 33951 ft 434 kts 310°
2026-05-08 18:13 32.44720 67.89531 33948 ft 434 kts 310°
2026-05-08 18:14 32.48563 67.84004 33942 ft 435 kts 310°
2026-05-08 18:14 32.52446 67.78516 33943 ft 434 kts 311°
2026-05-08 18:15 32.56476 67.73175 33945 ft 435 kts 312°
2026-05-08 18:15 32.60517 67.67825 33955 ft 435 kts 311°
2026-05-08 18:16 32.64539 67.62447 33936 ft 435 kts 311°
2026-05-08 18:16 32.68520 67.57097 33962 ft 435 kts 311°
2026-05-08 18:17 32.72521 67.51713 33965 ft 435 kts 311°
2026-05-08 18:17 32.76530 67.46311 33972 ft 436 kts 311°
2026-05-08 18:18 32.80483 67.40846 33981 ft 436 kts 309°
2026-05-08 18:18 32.84344 67.35298 33996 ft 435 kts 309°
2026-05-08 18:19 32.88176 67.29781 34019 ft 434 kts 309°
2026-05-08 18:19 32.92023 67.24259 34029 ft 434 kts 309°
2026-05-08 18:20 32.95261 67.19615 34051 ft 434 kts 309°
2026-05-08 18:20 32.99099 67.14107 34063 ft 435 kts 309°
2026-05-08 18:21 33.02962 67.08554 34078 ft 435 kts 309°
2026-05-08 18:21 33.06816 67.03004 34089 ft 435 kts 309°
2026-05-08 18:22 33.10676 66.97438 34077 ft 435 kts 309°
2026-05-08 18:22 33.14532 66.91869 34099 ft 435 kts 309°
2026-05-08 18:23 33.18389 66.86289 34083 ft 435 kts 309°
2026-05-08 18:23 33.22218 66.80741 34075 ft 435 kts 308°
2026-05-08 18:24 33.26069 66.75155 34091 ft 436 kts 308°
2026-05-08 18:24 33.29917 66.69560 34056 ft 436 kts 308°
2026-05-08 18:25 33.33774 66.63947 34045 ft 438 kts 308°
2026-05-08 18:25 33.37645 66.58305 34050 ft 438 kts 308°
2026-05-08 18:26 33.41512 66.52658 34040 ft 439 kts 308°
2026-05-08 18:26 33.45386 66.46995 34002 ft 438 kts 308°
2026-05-08 18:27 33.48590 66.42297 34018 ft 439 kts 308°
2026-05-08 18:27 33.53082 66.35680 34030 ft 440 kts 308°
2026-05-08 18:28 33.56943 66.29984 34016 ft 439 kts 308°
2026-05-08 18:28 33.60799 66.24284 34019 ft 440 kts 307°
2026-05-08 18:29 33.64663 66.18565 34033 ft 441 kts 307°
2026-05-08 18:29 33.68523 66.12843 34040 ft 442 kts 307°
2026-05-08 18:30 33.72390 66.07101 34061 ft 442 kts 307°
2026-05-08 18:30 33.76245 66.01369 34064 ft 440 kts 307°
2026-05-08 18:31 33.80097 65.95633 34072 ft 441 kts 307°
2026-05-08 18:31 33.83926 65.89919 34183 ft 444 kts 307°
2026-05-08 18:32 33.85883 65.86996 34528 ft 442 kts 307°
2026-05-08 18:32 33.87783 65.84157 34982 ft 438 kts 306°
2026-05-08 18:32 33.89683 65.81318 35426 ft 434 kts 306°
2026-05-08 18:32 33.91572 65.78490 35831 ft 431 kts 306°
2026-05-08 18:33 33.93447 65.75682 36131 ft 431 kts 306°
2026-05-08 18:33 33.95327 65.72861 36099 ft 431 kts 306°
2026-05-08 18:33 33.99073 65.67234 36112 ft 430 kts 306°
2026-05-08 18:34 34.02818 65.61603 36132 ft 431 kts 306°
2026-05-08 18:34 34.06573 65.55949 36139 ft 432 kts 306°
2026-05-08 18:35 34.10335 65.50280 36147 ft 432 kts 305°
2026-05-08 18:35 34.14084 65.44631 36150 ft 431 kts 305°
2026-05-08 18:36 34.17835 65.38967 36145 ft 431 kts 305°
2026-05-08 18:36 34.21570 65.33315 36150 ft 431 kts 305°
2026-05-08 18:37 34.25285 65.27686 36149 ft 431 kts 305°
2026-05-08 18:37 34.29024 65.22010 36148 ft 431 kts 305°
2026-05-08 18:38 34.32765 65.16322 36153 ft 432 kts 305°
2026-05-08 18:38 34.36506 65.10626 36152 ft 433 kts 304°
2026-05-08 18:39 34.40245 65.04925 36160 ft 432 kts 304°
2026-05-08 18:39 34.43950 64.99264 36151 ft 431 kts 304°
2026-05-08 18:40 34.47668 64.93577 36140 ft 431 kts 304°
2026-05-08 18:40 34.51387 64.87876 36139 ft 432 kts 304°
2026-05-08 18:41 34.55114 64.82148 36162 ft 432 kts 304°
2026-05-08 18:41 34.58839 64.76414 36143 ft 432 kts 304°
2026-05-08 18:42 34.62553 64.70685 36150 ft 432 kts 304°
2026-05-08 18:42 34.66268 64.64945 36151 ft 432 kts 304°
2026-05-08 18:43 34.69951 64.59245 36149 ft 431 kts 304°
2026-05-08 18:43 34.73660 64.53499 36141 ft 432 kts 304°
2026-05-08 18:44 34.77371 64.47737 36133 ft 433 kts 304°
2026-05-08 18:44 34.81081 64.41969 36135 ft 432 kts 303°
2026-05-08 18:45 34.84793 64.36188 36114 ft 432 kts 303°
2026-05-08 18:45 34.88502 64.30402 36124 ft 434 kts 303°
2026-05-08 18:46 34.92190 64.24636 36113 ft 434 kts 303°
2026-05-08 18:46 34.95892 64.18844 36115 ft 433 kts 303°
2026-05-08 18:47 34.99594 64.13042 36109 ft 433 kts 303°
2026-05-08 18:47 35.03294 64.07230 36099 ft 434 kts 303°
2026-05-08 18:48 35.06990 64.01418 36092 ft 432 kts 303°
2026-05-08 18:48 35.10662 63.95632 36099 ft 434 kts 303°
2026-05-08 18:49 35.14355 63.89801 36088 ft 434 kts 303°
2026-05-08 18:49 35.18043 63.83973 36093 ft 433 kts 303°
2026-05-08 18:50 35.21728 63.78137 36091 ft 432 kts 303°
2026-05-08 18:50 35.25400 63.72314 36082 ft 433 kts 302°
2026-05-08 18:51 35.29053 63.66509 36072 ft 433 kts 302°
2026-05-08 18:51 35.32736 63.60662 36055 ft 433 kts 302°
2026-05-08 18:52 35.36419 63.54826 36051 ft 433 kts 302°
2026-05-08 18:52 35.40102 63.48973 36045 ft 434 kts 302°
2026-05-08 18:53 35.43783 63.43114 36043 ft 434 kts 302°
2026-05-08 18:53 35.47463 63.37245 36031 ft 434 kts 302°
2026-05-08 18:54 35.51133 63.31382 36026 ft 433 kts 302°
2026-05-08 18:54 35.54801 63.25510 36022 ft 433 kts 302°
2026-05-08 18:55 35.60296 63.16683 35999 ft 433 kts 302°
2026-05-08 18:56 35.63928 63.10768 36014 ft 433 kts 302°
2026-05-08 18:56 35.67536 63.04875 36015 ft 433 kts 301°
2026-05-08 18:57 35.71163 62.98946 35991 ft 433 kts 301°
2026-05-08 18:57 35.74789 62.93014 35997 ft 433 kts 301°
2026-05-08 18:58 35.78411 62.87077 36001 ft 433 kts 301°
2026-05-08 18:58 35.82031 62.81134 35996 ft 434 kts 301°
2026-05-08 18:59 35.85631 62.75217 35996 ft 433 kts 301°
2026-05-08 18:59 35.89243 62.69265 36003 ft 433 kts 301°
2026-05-08 19:00 35.92240 62.64320 35995 ft 433 kts 301°
2026-05-08 19:00 35.96455 62.57354 36001 ft 433 kts 301°
2026-05-08 19:01 36.00060 62.51384 35999 ft 433 kts 301°
2026-05-08 19:01 36.03661 62.45412 35998 ft 433 kts 301°
2026-05-08 19:02 36.07254 62.39441 36005 ft 433 kts 301°
2026-05-08 19:02 36.10853 62.33450 35996 ft 434 kts 301°
2026-05-08 19:03 36.14427 62.27490 36010 ft 434 kts 300°
2026-05-08 19:03 36.18019 62.21490 36005 ft 434 kts 300°
2026-05-08 19:04 36.21608 62.15486 36013 ft 434 kts 300°
2026-05-08 19:04 36.25199 62.09466 36006 ft 434 kts 300°
2026-05-08 19:05 36.28788 62.03440 36011 ft 434 kts 300°
2026-05-08 19:05 36.32373 61.97409 36018 ft 435 kts 300°
2026-05-08 19:06 36.35960 61.91364 36013 ft 435 kts 300°
2026-05-08 19:06 36.39526 61.85345 36011 ft 435 kts 300°
2026-05-08 19:07 36.43108 61.79287 36009 ft 435 kts 300°
2026-05-08 19:07 36.46687 61.73223 36014 ft 435 kts 300°
2026-05-08 19:08 36.49668 61.68165 36012 ft 436 kts 300°
2026-05-08 19:08 36.53247 61.62082 36011 ft 435 kts 300°
2026-05-08 19:09 36.57399 61.55010 36019 ft 435 kts 300°
2026-05-08 19:09 36.60392 61.49906 36014 ft 435 kts 300°
2026-05-08 19:10 36.63924 61.43846 36018 ft 434 kts 299°
2026-05-08 19:10 36.67424 61.37697 36019 ft 434 kts 299°
2026-05-08 19:11 36.70908 61.31544 36017 ft 434 kts 299°
2026-05-08 19:11 36.74395 61.25390 36020 ft 434 kts 299°
2026-05-08 19:12 36.77860 61.19271 36018 ft 434 kts 298°
2026-05-08 19:12 36.81337 61.13121 36021 ft 433 kts 298°
2026-05-08 19:13 36.84811 61.06965 36024 ft 433 kts 298°
2026-05-08 19:13 36.88277 61.00812 36032 ft 433 kts 298°
2026-05-08 19:14 36.91740 60.94652 36039 ft 432 kts 298°
2026-05-08 19:14 36.95199 60.88489 36027 ft 432 kts 298°
2026-05-08 19:15 36.98686 60.82404 36032 ft 435 kts 300°
2026-05-08 19:15 37.02410 60.76433 36034 ft 435 kts 301°
2026-05-08 19:16 37.06189 60.70439 36033 ft 435 kts 301°
2026-05-08 19:16 37.09904 60.64513 36037 ft 435 kts 301°
2026-05-08 19:17 37.13627 60.58538 36038 ft 435 kts 300°
2026-05-08 19:17 37.17352 60.52543 36039 ft 436 kts 300°
2026-05-08 19:18 37.21076 60.46537 36042 ft 436 kts 300°
2026-05-08 19:18 37.24802 60.40518 36040 ft 436 kts 300°
2026-05-08 19:19 37.28518 60.34505 36038 ft 436 kts 300°
2026-05-08 19:19 37.32206 60.28527 36045 ft 436 kts 300°
2026-05-08 19:20 37.35916 60.22502 36046 ft 436 kts 300°
2026-05-08 19:20 37.39622 60.16473 36050 ft 435 kts 300°
2026-05-08 19:21 37.43323 60.10441 36049 ft 435 kts 300°
2026-05-08 19:21 37.47011 60.04419 36038 ft 434 kts 299°
2026-05-08 19:22 37.50696 59.98392 36041 ft 434 kts 299°
2026-05-08 19:22 37.54372 59.92368 36052 ft 434 kts 299°
2026-05-08 19:23 37.58044 59.86339 36050 ft 433 kts 299°
2026-05-08 19:23 37.61711 59.80308 36049 ft 432 kts 299°
2026-05-08 19:24 37.65364 59.74288 36054 ft 432 kts 299°
2026-05-08 19:24 37.69014 59.68262 36051 ft 431 kts 298°
2026-05-08 19:25 37.72652 59.62246 36049 ft 431 kts 298°
2026-05-08 19:25 37.76290 59.56217 36046 ft 431 kts 298°
2026-05-08 19:26 37.79897 59.50230 36052 ft 431 kts 298°
2026-05-08 19:26 37.83532 59.44184 36049 ft 431 kts 298°
2026-05-08 19:27 37.87163 59.38136 36048 ft 431 kts 298°
2026-05-08 19:27 37.90579 59.31954 36053 ft 425 kts 293°
2026-05-08 19:28 37.93661 59.25548 36054 ft 427 kts 292°
2026-05-08 19:28 37.96751 59.19105 36051 ft 428 kts 292°
2026-05-08 19:29 37.99852 59.12657 36052 ft 428 kts 292°
2026-05-08 19:29 38.02956 59.06204 36054 ft 428 kts 292°
2026-05-08 19:30 38.06037 58.99789 36056 ft 429 kts 292°
2026-05-08 19:30 38.09142 58.93311 36056 ft 430 kts 292°
2026-05-08 19:31 38.12250 58.86811 36056 ft 431 kts 292°
2026-05-08 19:31 38.15360 58.80296 36053 ft 431 kts 292°
2026-05-08 19:32 38.18471 58.73765 36057 ft 432 kts 291°
2026-05-08 19:32 38.21581 58.67222 36060 ft 432 kts 291°
2026-05-08 19:33 38.24675 58.60703 36057 ft 433 kts 291°
2026-05-08 19:33 38.27782 58.54139 36056 ft 433 kts 291°
2026-05-08 19:34 38.30891 58.47559 36063 ft 434 kts 291°
2026-05-08 19:34 38.34000 58.40966 36063 ft 434 kts 291°
2026-05-08 19:35 38.37111 58.34355 36058 ft 434 kts 291°
2026-05-08 19:35 38.40162 58.27734 36065 ft 431 kts 288°
2026-05-08 19:36 38.42658 58.20848 36055 ft 427 kts 285°
2026-05-08 19:36 38.45088 58.13925 36053 ft 428 kts 285°
2026-05-08 19:37 38.47530 58.07004 36059 ft 428 kts 285°
2026-05-08 19:37 38.49976 58.00084 36055 ft 427 kts 285°
2026-05-08 19:38 38.52400 57.93212 36059 ft 427 kts 285°
2026-05-08 19:38 38.54838 57.86282 36057 ft 427 kts 285°
2026-05-08 19:39 38.57273 57.79344 36058 ft 428 kts 285°
2026-05-08 19:39 38.59706 57.72398 36058 ft 428 kts 285°
2026-05-08 19:40 38.61964 57.65392 36060 ft 422 kts 279°
2026-05-08 19:40 38.63426 57.58235 36066 ft 418 kts 275°
2026-05-08 19:41 38.64812 57.51005 36065 ft 419 kts 275°
2026-05-08 19:41 38.66207 57.43778 36062 ft 418 kts 275°
2026-05-08 19:42 38.67602 57.36558 36067 ft 418 kts 275°
2026-05-08 19:42 38.68995 57.29329 36071 ft 418 kts 275°
2026-05-08 19:43 38.70382 57.22100 36078 ft 418 kts 275°
2026-05-08 19:43 38.71766 57.14867 36081 ft 418 kts 275°
2026-05-08 19:44 38.73135 57.07685 36076 ft 418 kts 275°
2026-05-08 19:44 38.74508 57.00456 36093 ft 417 kts 275°
2026-05-08 19:45 38.75874 56.93239 36095 ft 417 kts 275°
2026-05-08 19:45 38.77237 56.86011 36090 ft 417 kts 275°
2026-05-08 19:46 38.78592 56.78797 36095 ft 417 kts 275°
2026-05-08 19:46 38.80622 56.67933 36110 ft 417 kts 275°
2026-05-08 19:47 38.81962 56.60738 36109 ft 418 kts 274°
2026-05-08 19:47 38.83307 56.53486 36120 ft 418 kts 274°
2026-05-08 19:48 38.84648 56.46231 36123 ft 418 kts 274°
2026-05-08 19:48 38.85988 56.38945 36120 ft 419 kts 274°
2026-05-08 19:49 38.87324 56.31658 36117 ft 419 kts 274°
2026-05-08 19:49 38.88653 56.24393 36119 ft 417 kts 274°
2026-05-08 19:50 38.89975 56.17123 36128 ft 419 kts 274°
2026-05-08 19:50 38.91291 56.09855 36128 ft 420 kts 273°
2026-05-08 19:51 38.92611 56.02556 36127 ft 419 kts 273°
2026-05-08 19:51 38.93922 55.95273 36125 ft 419 kts 273°
2026-05-08 19:52 38.95230 55.87977 36132 ft 419 kts 273°
2026-05-08 19:52 38.96530 55.80693 36132 ft 419 kts 273°
2026-05-08 19:53 38.97828 55.73398 36139 ft 418 kts 273°
2026-05-08 19:53 38.99117 55.66122 36139 ft 417 kts 273°
2026-05-08 19:54 39.00184 55.60081 36144 ft 417 kts 273°
2026-05-08 19:54 39.01465 55.52807 36136 ft 416 kts 273°
2026-05-08 19:55 39.02743 55.45556 36137 ft 416 kts 273°
2026-05-08 19:55 39.04021 55.38283 36141 ft 416 kts 273°
2026-05-08 19:56 39.05284 55.31069 36144 ft 416 kts 272°
2026-05-08 19:56 39.06550 55.23816 36149 ft 415 kts 272°
2026-05-08 19:57 39.07809 55.16557 36144 ft 415 kts 272°
2026-05-08 19:57 39.09065 55.09307 36128 ft 414 kts 272°
2026-05-08 19:58 39.10310 55.02083 36136 ft 414 kts 272°
2026-05-08 19:58 39.11552 54.94837 36131 ft 414 kts 272°
2026-05-08 19:59 39.12793 54.87578 36131 ft 415 kts 272°
2026-05-08 19:59 39.14030 54.80313 36129 ft 415 kts 272°
2026-05-08 20:00 39.15262 54.73050 36137 ft 415 kts 272°
2026-05-08 20:00 39.16490 54.65776 36128 ft 415 kts 272°
2026-05-08 20:01 39.17713 54.58511 36123 ft 415 kts 271°
2026-05-08 20:01 39.18932 54.51230 36140 ft 416 kts 271°
2026-05-08 20:02 39.20137 54.43985 36132 ft 416 kts 271°
2026-05-08 20:02 39.21349 54.36677 36128 ft 417 kts 271°
2026-05-08 20:03 39.22558 54.29356 36131 ft 417 kts 271°
2026-05-08 20:03 39.23763 54.22031 36130 ft 417 kts 271°
2026-05-08 20:04 39.24963 54.14702 36129 ft 418 kts 271°
2026-05-08 20:04 39.26160 54.07362 36131 ft 418 kts 271°
2026-05-08 20:05 39.27353 54.00018 36131 ft 419 kts 271°
2026-05-08 20:05 39.28543 53.92651 36135 ft 420 kts 271°
2026-05-08 20:06 39.29733 53.85261 36133 ft 421 kts 271°
2026-05-08 20:06 39.30923 53.77845 36130 ft 421 kts 271°
2026-05-08 20:07 39.32108 53.70428 36133 ft 422 kts 271°
2026-05-08 20:07 39.33284 53.63025 36135 ft 423 kts 271°
2026-05-08 20:08 39.34467 53.55556 36136 ft 425 kts 271°
2026-05-08 20:08 39.35646 53.48072 36138 ft 426 kts 271°
2026-05-08 20:09 39.36824 53.40566 36136 ft 427 kts 271°
2026-05-08 20:09 39.38000 53.33039 36142 ft 427 kts 272°
2026-05-08 20:10 39.39173 53.25498 36132 ft 428 kts 272°
2026-05-08 20:10 39.40342 53.17947 36142 ft 429 kts 272°
2026-05-08 20:11 39.41510 53.10368 36143 ft 430 kts 272°
2026-05-08 20:11 39.42666 53.02833 36147 ft 430 kts 272°
2026-05-08 20:12 39.43826 52.95236 36146 ft 431 kts 272°
2026-05-08 20:12 39.44983 52.87626 36150 ft 431 kts 272°
2026-05-08 20:13 39.46137 52.80000 36151 ft 432 kts 272°
2026-05-08 20:13 39.47288 52.72357 36152 ft 433 kts 272°
2026-05-08 20:14 39.48437 52.64694 36151 ft 433 kts 273°
2026-05-08 20:14 39.49580 52.57027 36156 ft 434 kts 273°
2026-05-08 20:15 39.50716 52.49382 36157 ft 435 kts 273°
2026-05-08 20:15 39.51854 52.41680 36162 ft 436 kts 273°
2026-05-08 20:16 39.52989 52.33971 36162 ft 436 kts 273°
2026-05-08 20:16 39.54118 52.26253 36158 ft 436 kts 273°
2026-05-08 20:17 39.55244 52.18526 36162 ft 436 kts 273°
2026-05-08 20:17 39.56365 52.10793 36162 ft 437 kts 273°
2026-05-08 20:18 39.57480 52.03060 36162 ft 437 kts 273°
2026-05-08 20:18 39.58585 51.95366 36162 ft 437 kts 273°
2026-05-08 20:19 39.59691 51.87624 36170 ft 437 kts 273°
2026-05-08 20:19 39.60793 51.79867 36167 ft 437 kts 273°
2026-05-08 20:20 39.61890 51.72108 36162 ft 437 kts 273°
2026-05-08 20:20 39.62983 51.64342 36171 ft 438 kts 273°
2026-05-08 20:21 39.64073 51.56561 36166 ft 439 kts 273°
2026-05-08 20:21 39.65187 51.48813 36166 ft 441 kts 275°
2026-05-08 20:22 39.66621 51.41050 36167 ft 442 kts 276°
2026-05-08 20:22 39.67856 51.34607 36170 ft 443 kts 276°
2026-05-08 20:23 39.69580 51.25522 36172 ft 443 kts 276°
2026-05-08 20:23 39.71037 51.17741 36170 ft 443 kts 276°
2026-05-08 20:24 39.72483 51.09955 36171 ft 444 kts 276°
2026-05-08 20:24 39.73925 51.02155 36173 ft 444 kts 276°
2026-05-08 20:25 39.75363 50.94348 36172 ft 444 kts 276°
2026-05-08 20:25 39.76798 50.86529 36174 ft 445 kts 276°
2026-05-08 20:26 39.78220 50.78750 36172 ft 445 kts 276°
2026-05-08 20:26 39.79646 50.70914 36172 ft 445 kts 276°
2026-05-08 20:27 39.81069 50.63064 36170 ft 446 kts 276°
2026-05-08 20:27 39.82486 50.55217 36169 ft 446 kts 277°
2026-05-08 20:28 39.83900 50.47353 36175 ft 446 kts 277°
2026-05-08 20:28 39.85307 50.39489 36168 ft 446 kts 277°
2026-05-08 20:29 39.86709 50.31623 36173 ft 446 kts 277°
2026-05-08 20:29 39.88108 50.23745 36170 ft 446 kts 277°
2026-05-08 20:30 39.89492 50.15915 36171 ft 446 kts 277°
2026-05-08 20:30 39.90878 50.08041 36170 ft 446 kts 276°
2026-05-08 20:31 39.92260 50.00159 36175 ft 446 kts 276°
2026-05-08 20:31 39.93638 49.92264 36171 ft 447 kts 276°
2026-05-08 20:32 39.95012 49.84353 36173 ft 447 kts 276°
2026-05-08 20:32 39.96382 49.76438 36175 ft 447 kts 276°
2026-05-08 20:33 39.97738 49.68567 36174 ft 447 kts 276°
2026-05-08 20:33 39.99096 49.60647 36172 ft 448 kts 276°
2026-05-08 20:34 40.00453 49.52701 36180 ft 449 kts 276°
2026-05-08 20:35 40.02482 49.40756 36178 ft 450 kts 276°
2026-05-08 20:35 40.03830 49.32777 36183 ft 450 kts 276°
2026-05-08 20:36 40.05173 49.24790 36182 ft 451 kts 276°
2026-05-08 20:36 40.06503 49.16849 36185 ft 451 kts 276°
2026-05-08 20:37 40.07837 49.08840 36177 ft 451 kts 276°
2026-05-08 20:37 40.09168 49.00820 36182 ft 452 kts 276°
2026-05-08 20:38 40.10494 48.92791 36184 ft 452 kts 276°
2026-05-08 20:38 40.11817 48.84746 36190 ft 453 kts 276°
2026-05-08 20:39 40.13137 48.76683 36185 ft 453 kts 276°
2026-05-08 20:39 40.14225 48.69990 36184 ft 453 kts 276°
2026-05-08 20:40 40.15740 48.60620 36183 ft 453 kts 276°
2026-05-08 20:40 40.16828 48.53857 36181 ft 454 kts 276°
2026-05-08 20:41 40.18124 48.45773 36181 ft 455 kts 277°
2026-05-08 20:41 40.19410 48.37712 36175 ft 456 kts 277°
2026-05-08 20:42 40.20701 48.29583 36186 ft 457 kts 277°
2026-05-08 20:42 40.21990 48.21426 36180 ft 457 kts 277°
2026-05-08 20:43 40.23272 48.13272 36180 ft 458 kts 277°
2026-05-08 20:43 40.24552 48.05094 36182 ft 459 kts 277°
2026-05-08 20:44 40.25827 47.96909 36184 ft 459 kts 277°
2026-05-08 20:44 40.27098 47.88707 36179 ft 460 kts 277°
2026-05-08 20:45 40.28359 47.80531 36184 ft 461 kts 277°
2026-05-08 20:45 40.29624 47.72290 36181 ft 461 kts 277°
2026-05-08 20:46 40.30883 47.64045 36179 ft 462 kts 277°
2026-05-08 20:46 40.32139 47.55780 36182 ft 462 kts 277°
2026-05-08 20:47 40.33389 47.47506 36176 ft 463 kts 277°
2026-05-08 20:47 40.34635 47.39223 36176 ft 463 kts 277°
2026-05-08 20:48 40.35877 47.30925 36174 ft 464 kts 277°
2026-05-08 20:48 40.37114 47.22614 36182 ft 464 kts 278°
2026-05-08 20:49 40.38338 47.14347 36185 ft 465 kts 278°
2026-05-08 20:49 40.39565 47.06012 36189 ft 466 kts 278°
2026-05-08 20:50 40.40787 46.97673 36185 ft 466 kts 278°
2026-05-08 20:50 40.42007 46.89307 36188 ft 467 kts 278°
2026-05-08 20:51 40.43220 46.80936 36189 ft 468 kts 278°
2026-05-08 20:51 40.44431 46.72539 36189 ft 468 kts 278°
2026-05-08 20:52 40.45638 46.64131 36196 ft 469 kts 278°
2026-05-08 20:52 40.46839 46.55708 36195 ft 469 kts 278°
2026-05-08 20:53 40.48035 46.47278 36195 ft 470 kts 278°
2026-05-08 20:53 40.49227 46.38830 36192 ft 470 kts 278°
2026-05-08 20:54 40.50414 46.30378 36197 ft 470 kts 278°
2026-05-08 20:54 40.51595 46.21918 36195 ft 471 kts 278°
2026-05-08 20:55 40.52773 46.13440 36197 ft 471 kts 279°
2026-05-08 20:55 40.53944 46.04973 36200 ft 471 kts 279°
2026-05-08 20:56 40.55112 45.96493 36213 ft 471 kts 279°
2026-05-08 20:56 40.56273 45.88006 36218 ft 471 kts 279°
2026-05-08 20:57 40.57419 45.79583 36217 ft 471 kts 279°
2026-05-08 20:57 40.58575 45.71038 36225 ft 472 kts 279°
2026-05-08 20:58 40.59712 45.62585 36221 ft 472 kts 279°
2026-05-08 20:58 40.60851 45.54068 36218 ft 473 kts 279°
2026-05-08 20:59 40.61984 45.45544 36225 ft 473 kts 279°
2026-05-08 20:59 40.63115 45.36996 36226 ft 474 kts 279°
2026-05-08 21:00 40.64237 45.28444 36222 ft 474 kts 279°
2026-05-08 21:00 40.65355 45.19867 36233 ft 475 kts 279°
2026-05-08 21:01 40.66467 45.11294 36232 ft 475 kts 279°
2026-05-08 21:01 40.67565 45.02771 36229 ft 475 kts 279°
2026-05-08 21:02 40.68665 44.94182 36236 ft 476 kts 279°
2026-05-08 21:02 40.69761 44.85582 36242 ft 476 kts 279°
2026-05-08 21:03 40.70850 44.76974 36236 ft 475 kts 279°
2026-05-08 21:03 40.71931 44.68377 36243 ft 475 kts 279°
2026-05-08 21:04 40.73004 44.59787 36241 ft 474 kts 279°
2026-05-08 21:04 40.74070 44.51208 36244 ft 474 kts 279°
2026-05-08 21:05 40.75122 44.42687 36246 ft 473 kts 279°
2026-05-08 21:05 40.76175 44.34105 36258 ft 474 kts 279°
2026-05-08 21:06 40.77221 44.25514 36256 ft 474 kts 279°
2026-05-08 21:06 40.78260 44.16931 36259 ft 474 kts 279°
2026-05-08 21:07 40.79295 44.08333 36264 ft 474 kts 279°
2026-05-08 21:07 40.80316 43.99792 36265 ft 474 kts 279°
2026-05-08 21:08 40.81338 43.91185 36266 ft 475 kts 279°
2026-05-08 21:08 40.82354 43.82575 36265 ft 475 kts 279°
2026-05-08 21:09 40.83365 43.73953 36265 ft 475 kts 279°
2026-05-08 21:09 40.84235 43.65308 36266 ft 475 kts 276°
2026-05-08 21:10 40.84725 43.56602 36270 ft 476 kts 275°
2026-05-08 21:10 40.85171 43.47887 36269 ft 476 kts 275°
2026-05-08 21:11 40.85629 43.39169 36272 ft 476 kts 275°
2026-05-08 21:11 40.86097 43.30452 36277 ft 476 kts 275°
2026-05-08 21:12 40.86562 43.21727 36280 ft 476 kts 275°
2026-05-08 21:12 40.87020 43.13013 36282 ft 476 kts 275°
2026-05-08 21:13 40.87471 43.04298 36285 ft 475 kts 275°
2026-05-08 21:13 40.87912 42.95635 36284 ft 475 kts 275°
2026-05-08 21:14 40.88349 42.86923 36291 ft 475 kts 275°
2026-05-08 21:14 40.88780 42.78209 36285 ft 474 kts 275°
2026-05-08 21:15 40.89203 42.69509 36284 ft 474 kts 275°
2026-05-08 21:15 40.89619 42.60806 36282 ft 474 kts 275°
2026-05-08 21:16 40.90029 42.52118 36278 ft 473 kts 275°
2026-05-08 21:16 40.90429 42.43492 36280 ft 473 kts 275°
2026-05-08 21:17 40.90824 42.34820 36272 ft 472 kts 275°
2026-05-08 21:17 40.91213 42.26166 36269 ft 472 kts 275°
2026-05-08 21:18 40.91595 42.17502 36269 ft 472 kts 275°
2026-05-08 21:18 40.91970 42.08851 36260 ft 471 kts 275°
2026-05-08 21:19 40.92339 42.00197 36255 ft 471 kts 275°
2026-05-08 21:19 40.92702 41.91525 36257 ft 471 kts 275°
2026-05-08 21:20 40.93058 41.82876 36249 ft 471 kts 275°
2026-05-08 21:20 40.93406 41.74234 36249 ft 470 kts 275°
2026-05-08 21:21 40.93746 41.65658 36248 ft 470 kts 275°
2026-05-08 21:21 40.94084 41.56969 36246 ft 470 kts 275°
2026-05-08 21:22 40.94410 41.48407 36235 ft 469 kts 275°
2026-05-08 21:22 40.94733 41.39785 36232 ft 469 kts 275°
2026-05-08 21:23 40.95048 41.31156 36237 ft 469 kts 275°
2026-05-08 21:23 40.95357 41.22541 36215 ft 469 kts 275°
2026-05-08 21:24 40.95660 41.13942 36224 ft 468 kts 275°
2026-05-08 21:24 40.95955 41.05346 36216 ft 468 kts 275°
2026-05-08 21:25 40.96245 40.96741 36211 ft 468 kts 275°
2026-05-08 21:25 40.96482 40.89588 36195 ft 468 kts 275°
2026-05-08 21:26 40.96756 40.80989 36196 ft 468 kts 275°
2026-05-08 21:26 40.97021 40.72389 36204 ft 467 kts 275°
2026-05-08 21:27 40.97281 40.63804 36197 ft 467 kts 275°
2026-05-08 21:27 40.97534 40.55275 36212 ft 466 kts 275°
2026-05-08 21:28 40.97782 40.46693 36200 ft 467 kts 275°
2026-05-08 21:28 40.98025 40.38106 36197 ft 466 kts 275°
2026-05-08 21:29 40.98257 40.29528 36199 ft 466 kts 275°
2026-05-08 21:29 40.98486 40.20939 36193 ft 466 kts 275°
2026-05-08 21:30 40.98709 40.12365 36192 ft 466 kts 275°
2026-05-08 21:30 40.98923 40.03853 36188 ft 465 kts 275°
2026-05-08 21:31 40.99133 39.95285 36185 ft 465 kts 275°
2026-05-08 21:31 40.99336 39.86728 36182 ft 465 kts 275°
2026-05-08 21:32 40.99600 39.78183 36182 ft 463 kts 278°
2026-05-08 21:32 41.00400 39.69732 36192 ft 463 kts 280°
2026-05-08 21:33 41.01247 39.61291 36184 ft 462 kts 280°
2026-05-08 21:33 41.02065 39.52834 36190 ft 462 kts 280°
2026-05-08 21:34 41.02863 39.44397 36191 ft 462 kts 280°
2026-05-08 21:34 41.03649 39.35955 36198 ft 462 kts 280°
2026-05-08 21:35 41.04427 39.27563 36187 ft 461 kts 280°
2026-05-08 21:35 41.05204 39.19131 36175 ft 460 kts 280°
2026-05-08 21:36 41.05976 39.10707 36184 ft 460 kts 280°
2026-05-08 21:36 41.06761 39.02288 36175 ft 460 kts 280°
2026-05-08 21:37 41.07538 38.93925 36171 ft 460 kts 280°
2026-05-08 21:37 41.08315 38.85467 36173 ft 459 kts 280°
2026-05-08 21:38 41.09076 38.77108 36166 ft 459 kts 280°
2026-05-08 21:38 41.09833 38.68699 36176 ft 459 kts 279°
2026-05-08 21:39 41.10530 38.60295 36167 ft 458 kts 279°
2026-05-08 21:39 41.11233 38.51893 36167 ft 458 kts 279°
2026-05-08 21:40 41.11944 38.43496 36168 ft 458 kts 279°
2026-05-08 21:40 41.12648 38.35087 36165 ft 458 kts 279°
2026-05-08 21:41 41.13682 38.22534 36181 ft 458 kts 279°
2026-05-08 21:41 41.14359 38.14133 36181 ft 458 kts 279°
2026-05-08 21:42 41.15031 38.05728 36176 ft 458 kts 279°
2026-05-08 21:42 41.15698 37.97327 36173 ft 458 kts 279°
2026-05-08 21:43 41.16361 37.88910 36172 ft 458 kts 279°
2026-05-08 21:43 41.17067 37.80565 36171 ft 457 kts 279°
2026-05-08 21:44 41.17808 37.72179 36165 ft 457 kts 279°
2026-05-08 21:44 41.18532 37.63795 36166 ft 457 kts 279°
2026-05-08 21:45 41.19073 37.55439 36177 ft 458 kts 276°
2026-05-08 21:45 41.19566 37.47027 36169 ft 456 kts 278°
2026-05-08 21:46 41.20218 37.38648 36171 ft 456 kts 278°
2026-05-08 21:46 41.20844 37.30269 36167 ft 456 kts 278°
2026-05-08 21:47 41.21445 37.21898 36174 ft 455 kts 278°
2026-05-08 21:47 41.22094 37.13531 36171 ft 455 kts 279°
2026-05-08 21:48 41.22764 37.05173 36174 ft 454 kts 279°
2026-05-08 21:48 41.23421 36.96828 36173 ft 454 kts 278°
2026-05-08 21:49 41.24068 36.88470 36179 ft 454 kts 278°
2026-05-08 21:49 41.24706 36.80128 36177 ft 454 kts 278°
2026-05-08 21:50 41.25334 36.71841 36183 ft 454 kts 278°
2026-05-08 21:50 41.25961 36.63501 36184 ft 453 kts 278°
2026-05-08 21:51 41.26582 36.55155 36183 ft 453 kts 278°
2026-05-08 21:51 41.27183 36.46812 36183 ft 453 kts 278°
2026-05-08 21:52 41.27767 36.38473 36180 ft 453 kts 278°
2026-05-08 21:52 41.28347 36.30136 36177 ft 453 kts 278°
2026-05-08 21:53 41.28919 36.21843 36168 ft 452 kts 278°
2026-05-08 21:53 41.29489 36.13513 36158 ft 452 kts 278°
2026-05-08 21:54 41.30052 36.05188 36152 ft 452 kts 278°
2026-05-08 21:54 41.30610 35.96853 36157 ft 452 kts 278°
2026-05-08 21:55 41.31162 35.88507 36146 ft 452 kts 278°
2026-05-08 21:56 41.31972 35.76084 36134 ft 452 kts 277°
2026-05-08 21:56 41.32509 35.67757 36135 ft 451 kts 277°
2026-05-08 21:57 41.33040 35.59416 36134 ft 451 kts 277°
2026-05-08 21:57 41.33561 35.51128 36134 ft 451 kts 277°
2026-05-08 21:58 41.34078 35.42810 36140 ft 451 kts 277°
2026-05-08 21:58 41.34590 35.34485 36146 ft 451 kts 277°
2026-05-08 21:59 41.35092 35.26209 36142 ft 451 kts 277°
2026-05-08 21:59 41.35591 35.17877 36141 ft 450 kts 277°
2026-05-08 22:00 41.36081 35.09592 36132 ft 450 kts 277°
2026-05-08 22:00 41.36571 35.01255 36140 ft 450 kts 277°
2026-05-08 22:01 41.37049 34.92985 36154 ft 450 kts 277°
2026-05-08 22:01 41.37523 34.84674 36150 ft 450 kts 277°
2026-05-08 22:02 41.37990 34.76363 36158 ft 450 kts 277°
2026-05-08 22:02 41.38454 34.68026 36164 ft 450 kts 276°
2026-05-08 22:03 41.38909 34.59746 36176 ft 450 kts 276°
2026-05-08 22:03 41.39360 34.51417 36186 ft 451 kts 276°
2026-05-08 22:04 41.39806 34.43092 36184 ft 451 kts 276°
2026-05-08 22:04 41.40430 34.34785 36196 ft 450 kts 282°
2026-05-08 22:05 41.42014 34.26770 36197 ft 448 kts 290°
2026-05-08 22:05 41.44104 34.18914 36200 ft 449 kts 290°
2026-05-08 22:06 41.46137 34.11046 36199 ft 450 kts 290°
2026-05-08 22:06 41.48172 34.03135 36198 ft 451 kts 290°
2026-05-08 22:07 41.50194 33.95266 36209 ft 451 kts 290°
2026-05-08 22:07 41.52226 33.87329 36207 ft 452 kts 290°
2026-05-08 22:08 41.54255 33.79378 36209 ft 453 kts 289°
2026-05-08 22:08 41.56281 33.71408 36205 ft 453 kts 289°
2026-05-08 22:09 41.58295 33.63466 36200 ft 454 kts 289°
2026-05-08 22:09 41.60304 33.55482 36213 ft 454 kts 289°
2026-05-08 22:10 41.62297 33.47434 36206 ft 455 kts 289°
2026-05-08 22:10 41.64317 33.39443 36186 ft 456 kts 289°
2026-05-08 22:11 41.66351 33.31377 36179 ft 457 kts 289°
2026-05-08 22:11 41.68371 33.23313 36192 ft 457 kts 289°
2026-05-08 22:12 41.70377 33.15270 36176 ft 458 kts 289°
2026-05-08 22:12 41.72391 33.07174 36161 ft 459 kts 289°
2026-05-08 22:13 41.74392 32.99070 36154 ft 460 kts 288°
2026-05-08 22:13 41.76372 32.90908 36158 ft 460 kts 288°
2026-05-08 22:14 41.78350 32.82734 36128 ft 461 kts 288°
2026-05-08 22:14 41.80322 32.74580 36120 ft 462 kts 288°
2026-05-08 22:15 41.82326 32.66414 36134 ft 462 kts 288°
2026-05-08 22:15 41.84346 32.58207 36108 ft 463 kts 288°
2026-05-08 22:16 41.86354 32.49990 36110 ft 464 kts 288°
2026-05-08 22:16 41.88010 32.43137 36106 ft 464 kts 288°
2026-05-08 22:17 41.89941 32.34846 36099 ft 464 kts 287°
2026-05-08 22:17 41.91901 32.26642 36099 ft 465 kts 288°
2026-05-08 22:18 41.93879 32.18354 36097 ft 465 kts 287°
2026-05-08 22:18 41.95830 32.10127 36106 ft 465 kts 287°
2026-05-08 22:19 41.97787 32.01841 36095 ft 465 kts 287°
2026-05-08 22:19 41.99740 31.93548 36097 ft 465 kts 287°
2026-05-08 22:20 42.01680 31.85279 36098 ft 465 kts 287°
2026-05-08 22:20 42.03618 31.76980 36103 ft 465 kts 287°
2026-05-08 22:21 42.05548 31.68688 36098 ft 465 kts 287°
2026-05-08 22:21 42.07475 31.60376 36106 ft 465 kts 287°
2026-05-08 22:22 42.09399 31.52046 36105 ft 466 kts 286°
2026-05-08 22:22 42.11309 31.43752 36104 ft 466 kts 286°
2026-05-08 22:23 42.13232 31.35375 36424 ft 469 kts 286°
2026-05-08 22:23 42.14194 31.31188 36877 ft 465 kts 286°
2026-05-08 22:23 42.15145 31.27040 37355 ft 462 kts 286°
2026-05-08 22:23 42.16090 31.22914 37826 ft 459 kts 286°
2026-05-08 22:24 42.17027 31.18814 38131 ft 459 kts 286°
2026-05-08 22:24 42.18898 31.10597 38104 ft 459 kts 286°
2026-05-08 22:25 42.20763 31.02373 38106 ft 458 kts 286°
2026-05-08 22:25 42.22609 30.94204 38105 ft 458 kts 286°
2026-05-08 22:26 42.24466 30.85957 38106 ft 459 kts 286°
2026-05-08 22:26 42.26316 30.77707 38108 ft 459 kts 286°
2026-05-08 22:27 42.28165 30.69430 38101 ft 460 kts 285°
2026-05-08 22:27 42.29996 30.61205 38105 ft 460 kts 285°
2026-05-08 22:28 42.31834 30.52915 38104 ft 460 kts 285°
2026-05-08 22:28 42.33663 30.44638 38106 ft 461 kts 285°
2026-05-08 22:29 42.35493 30.36319 38103 ft 461 kts 285°
2026-05-08 22:29 42.37323 30.27972 38097 ft 462 kts 285°
2026-05-08 22:30 42.39133 30.19681 38104 ft 462 kts 285°
2026-05-08 22:30 42.40947 30.11340 38104 ft 463 kts 285°
2026-05-08 22:31 42.42763 30.02961 38098 ft 463 kts 285°
2026-05-08 22:31 42.44570 29.94587 38099 ft 463 kts 285°
2026-05-08 22:32 42.46358 29.86263 38104 ft 464 kts 284°
2026-05-08 22:32 42.47988 29.77811 38107 ft 464 kts 283°
2026-05-08 22:33 42.49516 29.69320 38090 ft 464 kts 282°
2026-05-08 22:33 42.51053 29.60803 38085 ft 464 kts 283°
2026-05-08 22:34 42.52602 29.52307 38095 ft 464 kts 283°
2026-05-08 22:34 42.54147 29.43840 38108 ft 465 kts 283°
2026-05-08 22:35 42.55694 29.35331 38098 ft 465 kts 282°
2026-05-08 22:35 42.57238 29.26796 38096 ft 465 kts 282°
2026-05-08 22:36 42.58762 29.18333 38095 ft 464 kts 282°
2026-05-08 22:36 42.60288 29.09812 38095 ft 465 kts 282°
2026-05-08 22:37 42.61816 29.01248 38091 ft 466 kts 282°
2026-05-08 22:37 42.63334 28.92692 38085 ft 466 kts 282°
2026-05-08 22:38 42.64839 28.84173 38084 ft 466 kts 282°
2026-05-08 22:38 42.66344 28.75614 38083 ft 466 kts 282°
2026-05-08 22:39 42.67845 28.67037 38083 ft 467 kts 282°
2026-05-08 22:39 42.69341 28.58446 38083 ft 467 kts 282°
2026-05-08 22:40 42.70831 28.49852 38080 ft 467 kts 282°
2026-05-08 22:40 42.72314 28.41253 38078 ft 467 kts 282°
2026-05-08 22:41 42.73792 28.32647 38077 ft 467 kts 282°
2026-05-08 22:41 42.75266 28.24018 38072 ft 468 kts 282°
2026-05-08 22:42 42.76731 28.15405 38074 ft 468 kts 282°
2026-05-08 22:42 42.78191 28.06776 38067 ft 468 kts 282°
2026-05-08 22:43 42.79635 27.98196 38067 ft 468 kts 282°
2026-05-08 22:43 42.81084 27.89550 38068 ft 468 kts 281°
2026-05-08 22:44 42.82523 27.80916 38074 ft 468 kts 281°
2026-05-08 22:44 42.83957 27.72270 38067 ft 468 kts 281°
2026-05-08 22:45 42.85378 27.63661 38069 ft 468 kts 281°
2026-05-08 22:45 42.86800 27.55001 38073 ft 468 kts 281°
2026-05-08 22:46 42.88214 27.46349 38061 ft 467 kts 281°
2026-05-08 22:46 42.89621 27.37689 38059 ft 467 kts 281°
2026-05-08 22:47 42.91012 27.29088 38064 ft 467 kts 281°
2026-05-08 22:47 42.92408 27.20417 38068 ft 467 kts 281°
2026-05-08 22:48 42.93796 27.11747 38068 ft 467 kts 281°
2026-05-08 22:48 42.95172 27.03105 38059 ft 467 kts 281°
2026-05-08 22:49 42.96546 26.94431 38059 ft 467 kts 281°
2026-05-08 22:49 42.98593 26.81430 38062 ft 467 kts 281°
2026-05-08 22:50 42.99953 26.72734 38061 ft 467 kts 281°
2026-05-08 22:50 43.01294 26.64110 38056 ft 467 kts 281°
2026-05-08 22:51 43.02635 26.55448 38054 ft 467 kts 281°
2026-05-08 22:51 43.03970 26.46769 38052 ft 467 kts 281°
2026-05-08 22:52 43.05301 26.38077 38056 ft 466 kts 281°
2026-05-08 22:52 43.06625 26.29380 38049 ft 466 kts 281°
2026-05-08 22:53 43.07943 26.20677 38050 ft 466 kts 281°
2026-05-08 22:53 43.09253 26.11984 38040 ft 466 kts 281°
2026-05-08 22:54 43.10547 26.03342 38031 ft 466 kts 280°
2026-05-08 22:54 43.11845 25.94630 38027 ft 466 kts 280°
2026-05-08 22:55 43.13135 25.85922 38022 ft 466 kts 280°
2026-05-08 22:55 43.14418 25.77222 38024 ft 466 kts 280°
2026-05-08 22:56 43.15698 25.68572 38023 ft 466 kts 281°
2026-05-08 22:56 43.17091 25.59880 38022 ft 466 kts 282°
2026-05-08 22:57 43.18505 25.51234 38022 ft 466 kts 281°
2026-05-08 22:57 43.19915 25.42495 38020 ft 466 kts 281°
2026-05-08 22:58 43.21289 25.33868 38021 ft 466 kts 281°
2026-05-08 22:58 43.22657 25.25214 38018 ft 465 kts 281°
2026-05-08 22:59 43.24021 25.16541 38019 ft 465 kts 281°
2026-05-08 22:59 43.25379 25.07863 38014 ft 465 kts 281°
2026-05-08 23:00 43.26731 24.99179 38017 ft 465 kts 281°
2026-05-08 23:00 43.28067 24.90548 38012 ft 465 kts 281°
2026-05-08 23:01 43.29407 24.81855 38014 ft 465 kts 281°
2026-05-08 23:01 43.30738 24.73163 38013 ft 465 kts 281°
2026-05-08 23:02 43.32054 24.64526 38011 ft 465 kts 281°
2026-05-08 23:02 43.33373 24.55827 38015 ft 465 kts 281°
2026-05-08 23:03 43.34676 24.47182 38019 ft 465 kts 281°
2026-05-08 23:03 43.35980 24.38486 38020 ft 464 kts 281°
2026-05-08 23:04 43.37279 24.29778 38020 ft 464 kts 281°
2026-05-08 23:04 43.38561 24.21128 38024 ft 464 kts 281°
2026-05-08 23:05 43.39845 24.12422 38020 ft 464 kts 281°
2026-05-08 23:05 43.41121 24.03721 38023 ft 464 kts 281°
2026-05-08 23:06 43.42391 23.95013 38022 ft 463 kts 281°
2026-05-08 23:06 43.43646 23.86359 38020 ft 463 kts 281°
2026-05-08 23:07 43.44895 23.77697 38025 ft 463 kts 281°
2026-05-08 23:07 43.46143 23.68997 38025 ft 462 kts 281°
2026-05-08 23:08 43.47377 23.60338 38024 ft 462 kts 280°
2026-05-08 23:08 43.48606 23.51667 38027 ft 461 kts 280°
2026-05-08 23:09 43.49625 23.44444 38024 ft 462 kts 280°
2026-05-08 23:09 43.50850 23.35751 38026 ft 462 kts 281°
2026-05-08 23:10 43.52844 23.27304 38032 ft 463 kts 292°
2026-05-08 23:10 43.55868 23.19462 38030 ft 465 kts 300°
2026-05-08 23:11 43.59271 23.11924 38024 ft 465 kts 301°
2026-05-08 23:11 43.62691 23.04339 38017 ft 465 kts 300°
2026-05-08 23:12 43.66073 22.96725 38022 ft 465 kts 300°
2026-05-08 23:12 43.69435 22.89095 38020 ft 465 kts 300°
2026-05-08 23:13 43.72771 22.81497 38019 ft 465 kts 300°
2026-05-08 23:13 43.76132 22.73830 38026 ft 465 kts 300°
2026-05-08 23:14 43.79465 22.66206 38023 ft 465 kts 300°
2026-05-08 23:14 43.82825 22.58502 38020 ft 466 kts 299°
2026-05-08 23:15 43.86152 22.50851 38010 ft 466 kts 299°
2026-05-08 23:15 43.89496 22.43144 38017 ft 466 kts 299°
2026-05-08 23:16 43.92361 22.35115 38009 ft 463 kts 289°
2026-05-08 23:16 43.94527 22.26695 38016 ft 463 kts 288°
2026-05-08 23:17 43.96652 22.18319 38015 ft 463 kts 288°
2026-05-08 23:17 43.98812 22.09898 38020 ft 462 kts 288°
2026-05-08 23:18 44.00979 22.01487 38022 ft 462 kts 288°
2026-05-08 23:18 44.03135 21.93102 38021 ft 461 kts 288°
2026-05-08 23:19 44.05284 21.84712 38033 ft 460 kts 288°
2026-05-08 23:19 44.07426 21.76314 38036 ft 460 kts 288°
2026-05-08 23:20 44.09559 21.67919 38038 ft 460 kts 288°
2026-05-08 23:20 44.11681 21.59538 38042 ft 459 kts 288°
2026-05-08 23:21 44.13799 21.51145 38050 ft 459 kts 287°
2026-05-08 23:21 44.15894 21.42811 38050 ft 458 kts 287°
2026-05-08 23:22 44.17997 21.34420 38030 ft 459 kts 287°
2026-05-08 23:22 44.20011 21.26001 38029 ft 458 kts 286°
2026-05-08 23:23 44.21931 21.17536 38043 ft 458 kts 285°
2026-05-08 23:23 44.23843 21.09069 38037 ft 458 kts 285°
2026-05-08 23:24 44.25764 21.00603 38034 ft 458 kts 286°
2026-05-08 23:24 44.27675 20.92179 38039 ft 458 kts 286°
2026-05-08 23:25 44.29594 20.83688 38042 ft 458 kts 285°
2026-05-08 23:25 44.31500 20.75220 38045 ft 458 kts 285°
2026-05-08 23:26 44.33405 20.66726 38043 ft 458 kts 285°
2026-05-08 23:26 44.35302 20.58228 38048 ft 457 kts 285°
2026-05-08 23:27 44.37190 20.49737 38051 ft 457 kts 285°
2026-05-08 23:27 44.39059 20.41301 38059 ft 457 kts 285°
2026-05-08 23:28 44.40933 20.32806 38053 ft 457 kts 285°
2026-05-08 23:28 44.42803 20.24297 38056 ft 457 kts 285°
2026-05-08 23:29 44.44664 20.15796 38062 ft 456 kts 285°
2026-05-08 23:29 44.46515 20.07304 38058 ft 456 kts 285°
2026-05-08 23:30 44.48362 19.98795 38056 ft 456 kts 285°
2026-05-08 23:30 44.50201 19.90291 38061 ft 456 kts 285°
2026-05-08 23:31 44.52030 19.81797 38061 ft 455 kts 285°
2026-05-08 23:31 44.53853 19.73295 38061 ft 455 kts 285°
2026-05-08 23:32 44.55668 19.64800 38058 ft 455 kts 285°
2026-05-08 23:32 44.57465 19.56348 38058 ft 455 kts 285°
2026-05-08 23:33 44.59266 19.47849 38067 ft 454 kts 285°
2026-05-08 23:33 44.61061 19.39347 38062 ft 454 kts 285°
2026-05-08 23:34 44.63185 19.30989 38070 ft 455 kts 290°
2026-05-08 23:34 44.65619 19.22777 38050 ft 455 kts 291°
2026-05-08 23:35 44.68048 19.14574 38062 ft 455 kts 290°
2026-05-08 23:35 44.70455 19.06339 38063 ft 455 kts 290°
2026-05-08 23:36 44.72844 18.98098 38069 ft 455 kts 290°
2026-05-08 23:36 44.75224 18.89855 38067 ft 455 kts 290°
2026-05-08 23:37 44.77599 18.81604 38067 ft 455 kts 290°
2026-05-08 23:37 44.79972 18.73336 38061 ft 454 kts 290°
2026-05-08 23:38 44.82318 18.65136 38057 ft 454 kts 290°
2026-05-08 23:38 44.84670 18.56888 38057 ft 453 kts 290°
2026-05-08 23:39 44.87015 18.48633 38059 ft 453 kts 290°
2026-05-08 23:39 44.89350 18.40389 38062 ft 453 kts 290°
2026-05-08 23:40 44.91683 18.32124 38057 ft 453 kts 290°
2026-05-08 23:40 44.94006 18.23863 38066 ft 453 kts 290°
2026-05-08 23:41 44.96324 18.15593 38061 ft 453 kts 290°
2026-05-08 23:41 44.98623 18.07367 38060 ft 453 kts 290°
2026-05-08 23:42 45.00926 17.99094 38066 ft 453 kts 290°
2026-05-08 23:42 45.03226 17.90808 38064 ft 453 kts 290°
2026-05-08 23:43 45.05557 17.82517 38065 ft 453 kts 291°
2026-05-08 23:43 45.08053 17.74318 38065 ft 454 kts 292°
2026-05-08 23:44 45.10578 17.66129 38076 ft 454 kts 291°
2026-05-08 23:44 45.13081 17.57910 38059 ft 454 kts 291°
2026-05-08 23:45 45.15542 17.49747 38067 ft 453 kts 291°
2026-05-08 23:45 45.18012 17.41514 38067 ft 453 kts 291°
2026-05-08 23:46 45.20472 17.33287 38072 ft 453 kts 291°
2026-05-08 23:46 45.22926 17.25055 38067 ft 453 kts 291°
2026-05-08 23:47 45.25372 17.16824 38063 ft 452 kts 291°
2026-05-08 23:47 45.27803 17.08619 38070 ft 451 kts 291°
2026-05-08 23:48 45.30228 17.00403 38071 ft 451 kts 291°
2026-05-08 23:48 45.32645 16.92189 38076 ft 450 kts 291°
2026-05-08 23:49 45.35057 16.83968 38073 ft 450 kts 291°
2026-05-08 23:49 45.37459 16.75751 38073 ft 450 kts 291°
2026-05-08 23:50 45.39859 16.67514 38067 ft 450 kts 291°
2026-05-08 23:50 45.42250 16.59281 38069 ft 450 kts 291°
2026-05-08 23:51 45.44624 16.51079 38070 ft 451 kts 291°
2026-05-08 23:51 45.47006 16.42820 38069 ft 451 kts 291°
2026-05-08 23:52 45.49386 16.34542 38072 ft 451 kts 290°
2026-05-08 23:52 45.51761 16.26254 38072 ft 451 kts 290°
2026-05-08 23:53 45.54131 16.17955 38078 ft 452 kts 290°
2026-05-08 23:53 45.56494 16.09653 38075 ft 451 kts 290°
2026-05-08 23:54 45.58834 16.01405 38077 ft 451 kts 290°
2026-05-08 23:55 45.62357 15.88933 38080 ft 450 kts 290°
2026-05-08 23:55 45.64675 15.80692 38078 ft 449 kts 290°
2026-05-08 23:56 45.67007 15.72372 38073 ft 449 kts 290°
2026-05-08 23:56 45.69318 15.64098 38096 ft 449 kts 290°
2026-05-08 23:57 45.71619 15.55831 38092 ft 448 kts 290°
2026-05-08 23:57 45.73538 15.48916 38105 ft 448 kts 290°
2026-05-08 23:58 45.75828 15.40643 38100 ft 448 kts 290°
2026-05-08 23:58 45.78116 15.30785 38094 ft 446 kts 282°
2026-05-08 23:59 45.79286 15.23558 38100 ft 446 kts 282°
2026-05-08 23:59 45.80667 15.14918 38096 ft 446 kts 282°
2026-05-09 00:00 45.82064 15.06276 38090 ft 446 kts 282°
2026-05-09 00:00 45.83465 14.97644 38099 ft 445 kts 282°
2026-05-09 00:01 45.84869 14.88957 38099 ft 445 kts 282°
2026-05-09 00:01 45.86258 14.80317 38098 ft 445 kts 282°
2026-05-09 00:02 45.87643 14.71655 38104 ft 445 kts 282°
2026-05-09 00:02 45.89015 14.63032 38102 ft 445 kts 282°
2026-05-09 00:03 45.90380 14.54399 38104 ft 444 kts 282°
2026-05-09 00:03 45.91748 14.45710 38103 ft 444 kts 282°
2026-05-09 00:04 45.93099 14.37088 38109 ft 444 kts 282°
2026-05-09 00:04 45.94458 14.28458 38104 ft 443 kts 282°
2026-05-09 00:05 45.95919 14.19873 38111 ft 443 kts 283°
2026-05-09 00:05 45.97404 14.11242 38113 ft 443 kts 283°
2026-05-09 00:06 45.98861 14.02651 38109 ft 444 kts 283°
2026-05-09 00:06 46.00317 13.93985 38096 ft 443 kts 282°
2026-05-09 00:07 46.01753 13.85381 38098 ft 444 kts 282°
2026-05-09 00:07 46.03185 13.76757 38103 ft 443 kts 282°
2026-05-09 00:08 46.04612 13.68133 38088 ft 444 kts 282°
2026-05-09 00:08 46.06032 13.59512 38080 ft 443 kts 283°
2026-05-09 00:09 46.07649 13.50898 38082 ft 443 kts 284°
2026-05-09 00:09 46.09327 13.42384 38084 ft 443 kts 284°
2026-05-09 00:10 46.10975 13.33820 38079 ft 443 kts 284°
2026-05-09 00:10 46.12594 13.25289 38078 ft 443 kts 284°
2026-05-09 00:11 46.14224 13.16732 38080 ft 443 kts 285°
2026-05-09 00:11 46.16021 13.08243 38082 ft 444 kts 286°
2026-05-09 00:12 46.17882 12.99705 38094 ft 444 kts 286°
2026-05-09 00:12 46.19710 12.91193 38096 ft 444 kts 285°
2026-05-09 00:13 46.21519 12.82659 38095 ft 444 kts 285°
2026-05-09 00:13 46.23310 12.74153 38096 ft 444 kts 285°
2026-05-09 00:14 46.25106 12.65583 38098 ft 444 kts 285°
2026-05-09 00:14 46.26883 12.57074 38099 ft 443 kts 285°
2026-05-09 00:15 46.28663 12.48518 38101 ft 443 kts 285°
2026-05-09 00:15 46.30426 12.40003 38102 ft 443 kts 285°
2026-05-09 00:16 46.32189 12.31453 38128 ft 442 kts 285°
2026-05-09 00:16 46.33935 12.22954 38129 ft 442 kts 285°
2026-05-09 00:17 46.35683 12.14399 38113 ft 442 kts 285°
2026-05-09 00:17 46.37419 12.05872 38115 ft 441 kts 285°
2026-05-09 00:18 46.39150 11.97336 38122 ft 442 kts 285°
2026-05-09 00:18 46.40872 11.88804 38131 ft 442 kts 284°
2026-05-09 00:19 46.42599 11.80228 38130 ft 444 kts 285°
2026-05-09 00:19 46.44535 11.71746 38139 ft 444 kts 287°
2026-05-09 00:20 46.46577 11.63322 38152 ft 443 kts 287°
2026-05-09 00:20 46.48592 11.54880 38148 ft 445 kts 287°
2026-05-09 00:21 46.50585 11.46389 38154 ft 445 kts 287°
2026-05-09 00:21 46.52572 11.37849 38165 ft 444 kts 287°
2026-05-09 00:22 46.54540 11.29349 38167 ft 445 kts 287°
2026-05-09 00:22 46.56512 11.20805 38182 ft 446 kts 287°
2026-05-09 00:23 46.58468 11.12301 38166 ft 445 kts 287°
2026-05-09 00:23 46.60421 11.03771 38165 ft 445 kts 287°
2026-05-09 00:24 46.62373 10.95218 38167 ft 446 kts 287°
2026-05-09 00:24 46.64332 10.86594 38155 ft 447 kts 286°
2026-05-09 00:25 46.66262 10.78066 38156 ft 446 kts 286°
2026-05-09 00:25 46.68205 10.69446 38149 ft 446 kts 286°
2026-05-09 00:26 46.70132 10.60865 38147 ft 447 kts 286°
2026-05-09 00:26 46.72052 10.52277 38143 ft 446 kts 286°
2026-05-09 00:27 46.73966 10.43682 38133 ft 446 kts 286°
2026-05-09 00:27 46.75871 10.35092 38123 ft 446 kts 286°
2026-05-09 00:28 46.77794 10.26435 38120 ft 447 kts 287°
2026-05-09 00:28 46.80102 10.18013 38115 ft 447 kts 291°
2026-05-09 00:29 46.82521 10.09688 38121 ft 447 kts 291°
2026-05-09 00:29 46.84924 10.01350 38119 ft 447 kts 290°
2026-05-09 00:30 46.87308 9.92982 38113 ft 446 kts 290°
2026-05-09 00:30 46.89689 9.84571 38101 ft 447 kts 290°
2026-05-09 00:31 46.92055 9.76185 38095 ft 447 kts 290°
2026-05-09 00:31 46.94411 9.67809 38080 ft 446 kts 290°
2026-05-09 00:32 46.96778 9.59368 38103 ft 446 kts 290°
2026-05-09 00:32 46.99127 9.50960 38099 ft 447 kts 290°
2026-05-09 00:33 47.01473 9.42530 38078 ft 447 kts 290°
2026-05-09 00:33 47.03811 9.34105 38094 ft 447 kts 290°
2026-05-09 00:34 47.06158 9.25616 38105 ft 448 kts 290°
2026-05-09 00:34 47.08489 9.17155 38114 ft 449 kts 290°
2026-05-09 00:35 47.10814 9.08694 38085 ft 448 kts 290°
2026-05-09 00:35 47.13133 9.00219 38104 ft 448 kts 290°
2026-05-09 00:36 47.15447 8.91736 38113 ft 448 kts 290°
2026-05-09 00:36 47.17666 8.83142 38091 ft 447 kts 288°
2026-05-09 00:37 47.19791 8.74618 38097 ft 447 kts 289°
2026-05-09 00:37 47.21964 8.66007 38094 ft 447 kts 289°
2026-05-09 00:38 47.24126 8.57457 38094 ft 448 kts 289°
2026-05-09 00:38 47.26297 8.48826 38097 ft 448 kts 289°
2026-05-09 00:39 47.28456 8.40251 38101 ft 447 kts 289°
2026-05-09 00:39 47.30611 8.31668 38096 ft 447 kts 289°
2026-05-09 00:40 47.32760 8.23071 38100 ft 447 kts 289°
2026-05-09 00:40 47.34904 8.14461 38100 ft 448 kts 289°
2026-05-09 00:41 47.38113 8.01515 38098 ft 448 kts 289°
2026-05-09 00:41 47.40236 7.92910 38088 ft 448 kts 289°
2026-05-09 00:42 47.42353 7.84297 38108 ft 448 kts 289°
2026-05-09 00:42 47.44485 7.75592 38082 ft 448 kts 289°
2026-05-09 00:43 47.46578 7.66939 38080 ft 448 kts 287°
2026-05-09 00:43 47.48184 7.58026 38071 ft 448 kts 283°
2026-05-09 00:44 47.49640 7.49083 38075 ft 448 kts 283°
2026-05-09 00:44 47.51098 7.40151 38080 ft 449 kts 283°
2026-05-09 00:45 47.52580 7.31138 38082 ft 449 kts 283°
2026-05-09 00:45 47.54052 7.22179 38086 ft 449 kts 283°
2026-05-09 00:46 47.55515 7.13228 38081 ft 449 kts 283°
2026-05-09 00:46 47.56735 7.05727 38084 ft 448 kts 283°
2026-05-09 00:47 47.58181 6.96787 38093 ft 448 kts 283°
2026-05-09 00:47 47.59624 6.87811 38089 ft 448 kts 283°
2026-05-09 00:48 47.61068 6.78789 38086 ft 448 kts 283°
2026-05-09 00:48 47.62495 6.69820 38082 ft 448 kts 283°
2026-05-09 00:49 47.63923 6.60800 38081 ft 448 kts 283°
2026-05-09 00:49 47.65338 6.51811 38081 ft 448 kts 283°
2026-05-09 00:50 47.66740 6.42851 38076 ft 448 kts 282°
2026-05-09 00:50 47.68147 6.33821 38083 ft 449 kts 282°
2026-05-09 00:51 47.69747 6.24896 38077 ft 450 kts 287°
2026-05-09 00:51 47.71650 6.16032 38073 ft 450 kts 287°
2026-05-09 00:52 47.73549 6.07213 38075 ft 450 kts 287°
2026-05-09 00:52 47.75438 5.98298 38072 ft 450 kts 287°
2026-05-09 00:53 47.77293 5.89464 38074 ft 451 kts 287°
2026-05-09 00:53 47.79161 5.80520 38071 ft 451 kts 286°
2026-05-09 00:54 47.81015 5.71611 38067 ft 451 kts 286°
2026-05-09 00:54 47.82859 5.62708 38071 ft 451 kts 286°
2026-05-09 00:55 47.84694 5.53811 38069 ft 451 kts 286°
2026-05-09 00:55 47.86542 5.44815 38067 ft 452 kts 286°
2026-05-09 00:56 47.87727 5.35730 38066 ft 450 kts 265°
2026-05-09 00:56 47.87165 5.31149 37458 ft 463 kts 252°
2026-05-09 00:56 47.85726 5.26819 36798 ft 467 kts 237°
2026-05-09 00:57 47.83591 5.23157 35985 ft 469 kts 224°
2026-05-09 00:57 47.80980 5.20288 35096 ft 475 kts 211°
2026-05-09 00:57 47.77913 5.18445 34169 ft 472 kts 204°
2026-05-09 00:57 47.75048 5.16063 33090 ft 468 kts 223°
2026-05-09 00:58 47.72967 5.12445 32165 ft 463 kts 242°
2026-05-09 00:58 47.71814 5.08005 31226 ft 460 kts 259°
2026-05-09 00:58 47.71544 5.03335 30380 ft 458 kts 274°
2026-05-09 00:58 47.71998 4.98657 29676 ft 453 kts 285°
2026-05-09 00:59 47.72978 4.94286 28934 ft 448 kts 293°
2026-05-09 00:59 47.74460 4.90242 28250 ft 443 kts 306°
2026-05-09 00:59 47.76537 4.86822 27677 ft 448 kts 316°
2026-05-09 00:59 47.78919 4.83785 27289 ft 451 kts 320°
2026-05-09 01:00 47.81375 4.80919 26937 ft 451 kts 321°
2026-05-09 01:00 47.83859 4.78038 26593 ft 450 kts 321°
2026-05-09 01:00 47.86279 4.75161 26269 ft 448 kts 320°
2026-05-09 01:00 47.88687 4.72211 25940 ft 445 kts 319°
2026-05-09 01:01 47.91036 4.69266 25617 ft 443 kts 319°
2026-05-09 01:01 47.93391 4.66272 25292 ft 441 kts 319°
2026-05-09 01:01 47.95693 4.63324 24982 ft 439 kts 318°
2026-05-09 01:01 47.98013 4.60344 24666 ft 438 kts 318°
2026-05-09 01:02 48.00322 4.57377 24341 ft 436 kts 318°
2026-05-09 01:02 48.02593 4.54457 24027 ft 434 kts 318°
2026-05-09 01:02 48.04882 4.51512 23712 ft 432 kts 318°
2026-05-09 01:02 48.07171 4.48566 23353 ft 430 kts 318°
2026-05-09 01:03 48.09416 4.45675 23007 ft 428 kts 318°
2026-05-09 01:03 48.11677 4.42758 22673 ft 426 kts 318°
2026-05-09 01:03 48.13893 4.39897 22366 ft 423 kts 318°
2026-05-09 01:03 48.16130 4.37005 22059 ft 421 kts 318°
2026-05-09 01:04 48.18324 4.34164 21754 ft 419 kts 318°
2026-05-09 01:04 48.20540 4.31291 21453 ft 417 kts 318°
2026-05-09 01:04 48.22707 4.28480 21142 ft 415 kts 317°
2026-05-09 01:04 48.24891 4.25644 20838 ft 413 kts 317°
2026-05-09 01:05 48.27018 4.22739 20534 ft 410 kts 312°
2026-05-09 01:05 48.28852 4.19528 20236 ft 407 kts 307°
2026-05-09 01:05 48.32330 4.12809 19665 ft 404 kts 307°
2026-05-09 01:06 48.34071 4.09586 19373 ft 396 kts 308°
2026-05-09 01:06 48.35807 4.06418 19074 ft 387 kts 308°
2026-05-09 01:06 48.37511 4.03313 18797 ft 380 kts 308°
2026-05-09 01:06 48.39173 4.00279 18534 ft 378 kts 308°
2026-05-09 01:07 48.40852 3.97205 18234 ft 378 kts 308°
2026-05-09 01:07 48.42519 3.94148 17942 ft 377 kts 308°
2026-05-09 01:07 48.44162 3.91131 17649 ft 376 kts 308°
2026-05-09 01:07 48.45825 3.88072 17368 ft 375 kts 308°
2026-05-09 01:08 48.47457 3.85067 17094 ft 374 kts 307°
2026-05-09 01:08 48.49112 3.82019 16830 ft 373 kts 307°
2026-05-09 01:08 48.50755 3.78989 16556 ft 372 kts 307°
2026-05-09 01:08 48.52380 3.75988 16284 ft 371 kts 307°
2026-05-09 01:09 48.54016 3.72952 16014 ft 370 kts 306°
2026-05-09 01:09 48.55484 3.69817 15844 ft 368 kts 301°
2026-05-09 01:09 48.56849 3.66521 15648 ft 368 kts 300°
2026-05-09 01:09 48.58204 3.63231 15470 ft 368 kts 301°
2026-05-09 01:10 48.59561 3.60014 15257 ft 367 kts 301°
2026-05-09 01:10 48.60954 3.56758 15081 ft 367 kts 301°
2026-05-09 01:10 48.62329 3.53552 14973 ft 366 kts 301°
2026-05-09 01:10 48.63720 3.50309 14880 ft 366 kts 301°
2026-05-09 01:11 48.65107 3.47073 14790 ft 366 kts 301°
2026-05-09 01:11 48.66478 3.43875 14689 ft 365 kts 301°
2026-05-09 01:11 48.67867 3.40634 14590 ft 365 kts 301°
2026-05-09 01:11 48.69252 3.37401 14490 ft 365 kts 301°
2026-05-09 01:12 48.70621 3.34206 14405 ft 364 kts 301°
2026-05-09 01:12 48.72006 3.30972 14302 ft 364 kts 301°
2026-05-09 01:12 48.73371 3.27784 14219 ft 364 kts 301°
2026-05-09 01:12 48.74750 3.24565 14134 ft 363 kts 301°
2026-05-09 01:13 48.76117 3.21371 14039 ft 363 kts 301°
2026-05-09 01:13 48.77494 3.18155 13952 ft 363 kts 301°
2026-05-09 01:13 48.78876 3.14926 13857 ft 362 kts 301°
2026-05-09 01:13 48.80231 3.11761 13755 ft 362 kts 301°
2026-05-09 01:14 48.81603 3.08556 13667 ft 361 kts 301°
2026-05-09 01:14 48.82972 3.05356 13582 ft 360 kts 301°
2026-05-09 01:14 48.84344 3.02151 13500 ft 360 kts 301°
2026-05-09 01:14 48.85695 2.98994 13417 ft 359 kts 301°
2026-05-09 01:15 48.87061 2.95801 13331 ft 358 kts 301°
2026-05-09 01:15 48.88410 2.92647 13247 ft 358 kts 301°
2026-05-09 01:15 48.89776 2.89453 13170 ft 357 kts 301°
2026-05-09 01:15 48.91117 2.86318 13096 ft 357 kts 301°
2026-05-09 01:16 48.92478 2.83136 13022 ft 357 kts 301°
2026-05-09 01:16 48.93815 2.80009 12945 ft 356 kts 301°
2026-05-09 01:16 48.95168 2.76844 12875 ft 355 kts 301°
2026-05-09 01:17 48.97858 2.70551 12737 ft 355 kts 301°
2026-05-09 01:17 48.99212 2.67382 12666 ft 354 kts 301°
2026-05-09 01:17 49.00542 2.64269 12601 ft 354 kts 301°
2026-05-09 01:17 49.01889 2.61113 12530 ft 353 kts 301°
2026-05-09 01:18 49.03216 2.58006 12476 ft 353 kts 301°
2026-05-09 01:18 49.04560 2.54856 12422 ft 353 kts 301°
2026-05-09 01:18 49.05903 2.51710 12355 ft 352 kts 301°
2026-05-09 01:18 49.07226 2.48611 12296 ft 352 kts 301°
2026-05-09 01:19 49.08567 2.45467 12240 ft 352 kts 301°
2026-05-09 01:19 49.09907 2.42325 12174 ft 351 kts 301°
2026-05-09 01:19 49.11226 2.39229 12142 ft 351 kts 301°
2026-05-09 01:19 49.12567 2.36084 12093 ft 351 kts 302°
2026-05-09 01:20 49.13884 2.32991 12051 ft 351 kts 302°
2026-05-09 01:20 49.15229 2.29833 11976 ft 351 kts 302°
2026-05-09 01:20 49.16559 2.26708 11931 ft 351 kts 302°
2026-05-09 01:20 49.17879 2.23606 11890 ft 351 kts 302°
2026-05-09 01:21 49.19211 2.20474 11853 ft 350 kts 302°
2026-05-09 01:21 49.20531 2.17369 11820 ft 350 kts 302°
2026-05-09 01:21 49.21865 2.14233 11785 ft 351 kts 302°
2026-05-09 01:21 49.23203 2.11083 11738 ft 351 kts 302°
2026-05-09 01:22 49.24518 2.07986 11721 ft 350 kts 302°
2026-05-09 01:22 49.25849 2.04851 11699 ft 350 kts 302°
2026-05-09 01:22 49.27178 2.01717 11668 ft 350 kts 302°
2026-05-09 01:22 49.28510 1.98579 11664 ft 350 kts 302°
2026-05-09 01:23 49.29824 1.95479 11644 ft 350 kts 302°
2026-05-09 01:23 49.31155 1.92339 11610 ft 350 kts 302°
2026-05-09 01:23 49.32482 1.89207 11600 ft 350 kts 302°
2026-05-09 01:23 49.33797 1.86102 11586 ft 350 kts 302°
2026-05-09 01:24 49.35127 1.82959 11571 ft 350 kts 302°
2026-05-09 01:24 49.36445 1.79844 11554 ft 350 kts 302°
2026-05-09 01:24 49.37780 1.76686 11542 ft 350 kts 302°
2026-05-09 01:24 49.39090 1.73588 11532 ft 350 kts 302°
2026-05-09 01:25 49.40417 1.70448 11523 ft 350 kts 302°
2026-05-09 01:25 49.41748 1.67298 11500 ft 350 kts 302°
2026-05-09 01:25 49.43075 1.64156 11504 ft 350 kts 302°
2026-05-09 01:25 49.44388 1.61046 11497 ft 350 kts 302°
2026-05-09 01:26 49.45712 1.57909 11495 ft 350 kts 302°
2026-05-09 01:26 49.47040 1.54762 11490 ft 350 kts 302°
2026-05-09 01:26 49.48354 1.51647 11486 ft 350 kts 302°
2026-05-09 01:26 49.49681 1.48500 11475 ft 350 kts 302°
2026-05-09 01:27 49.51009 1.45353 11471 ft 350 kts 302°
2026-05-09 01:27 49.52338 1.42198 11466 ft 350 kts 302°
2026-05-09 01:27 49.53650 1.39085 11465 ft 350 kts 302°
2026-05-09 01:27 49.54983 1.35918 11463 ft 350 kts 302°
2026-05-09 01:28 49.56070 1.32679 11400 ft 346 kts 285°
2026-05-09 01:28 49.56173 1.28986 11366 ft 348 kts 259°
2026-05-09 01:28 49.55286 1.25526 11324 ft 350 kts 238°
2026-05-09 01:28 49.53706 1.22734 11279 ft 351 kts 219°
2026-05-09 01:29 49.51587 1.20936 11222 ft 345 kts 198°
2026-05-09 01:29 49.49244 1.20475 11132 ft 334 kts 176°
2026-05-09 01:29 49.47068 1.21303 11039 ft 320 kts 156°
2026-05-09 01:29 49.45196 1.23015 10945 ft 306 kts 140°
2026-05-09 01:30 49.43758 1.25343 10795 ft 293 kts 130°
2026-05-09 01:30 49.42507 1.27730 10433 ft 290 kts 128°
2026-05-09 01:30 49.41213 1.30258 9369 ft 310 kts 128°
2026-05-09 01:30 49.39824 1.32977 8117 ft 333 kts 128°
2026-05-09 01:31 49.38376 1.35801 7224 ft 343 kts 128°
2026-05-09 01:31 49.36885 1.38688 6522 ft 344 kts 128°
2026-05-09 01:31 49.35404 1.41539 5816 ft 344 kts 128°
2026-05-09 01:31 49.33911 1.44401 5299 ft 341 kts 128°
2026-05-09 01:32 49.32428 1.47234 5164 ft 340 kts 128°
2026-05-09 01:32 49.30944 1.50062 5092 ft 340 kts 128°
2026-05-09 01:32 49.29487 1.52883 5026 ft 340 kts 127°
2026-05-09 01:32 49.28083 1.55805 5011 ft 339 kts 126°
2026-05-09 01:33 49.26700 1.58755 5005 ft 340 kts 125°
2026-05-09 01:33 49.25332 1.61678 5003 ft 340 kts 125°
2026-05-09 01:33 49.23948 1.64621 4995 ft 340 kts 126°
2026-05-09 01:33 49.22570 1.67535 4988 ft 341 kts 126°
2026-05-09 01:34 49.21170 1.70484 4986 ft 340 kts 126°
2026-05-09 01:34 49.19767 1.73428 4983 ft 340 kts 126°
2026-05-09 01:34 49.18376 1.76339 4982 ft 340 kts 126°
2026-05-09 01:34 49.16978 1.79260 4980 ft 340 kts 126°
2026-05-09 01:35 49.15576 1.82184 4978 ft 341 kts 126°
2026-05-09 01:35 49.14652 1.84109 4975 ft 341 kts 126°
2026-05-09 01:35 49.13251 1.87027 4974 ft 340 kts 126°
2026-05-09 01:35 49.11851 1.89938 4973 ft 340 kts 126°
2026-05-09 01:36 49.09993 1.93798 4969 ft 337 kts 126°
2026-05-09 01:36 49.08638 1.96607 4971 ft 319 kts 126°
2026-05-09 01:36 49.07770 1.98405 4950 ft 305 kts 126°
2026-05-09 01:36 49.06554 2.00924 4969 ft 285 kts 126°
2026-05-09 01:37 49.05062 2.04012 4968 ft 265 kts 126°
2026-05-09 01:37 49.04323 2.05540 4980 ft 266 kts 126°
2026-05-09 01:37 49.03240 2.07779 4973 ft 264 kts 126°
2026-05-09 01:37 49.02154 2.10024 4967 ft 263 kts 126°
2026-05-09 01:38 49.01067 2.12267 4974 ft 263 kts 126°
2026-05-09 01:38 48.99977 2.14511 4975 ft 263 kts 126°
2026-05-09 01:38 48.98959 2.16605 4974 ft 264 kts 126°
2026-05-09 01:38 48.97910 2.18881 4953 ft 261 kts 117°
2026-05-09 01:39 48.97452 2.21552 4846 ft 266 kts 93°
2026-05-09 01:39 48.97500 2.24157 4505 ft 265 kts 85°
2026-05-09 01:39 48.97680 2.26920 4149 ft 262 kts 85°
2026-05-09 01:39 48.97848 2.29661 3803 ft 259 kts 85°
2026-05-09 01:40 48.97995 2.32350 3467 ft 257 kts 86°
2026-05-09 01:40 48.98139 2.35046 3122 ft 254 kts 86°
2026-05-09 01:40 48.98283 2.37697 2779 ft 246 kts 86°
2026-05-09 01:40 48.98418 2.40196 2456 ft 226 kts 86°
2026-05-09 01:41 48.98538 2.42459 2209 ft 203 kts 86°
2026-05-09 01:41 48.98645 2.44469 1936 ft 179 kts 86°
2026-05-09 01:41 48.98740 2.46244 1689 ft 157 kts 86°
2026-05-09 01:41 48.98823 2.47797 1469 ft 144 kts 86°
2026-05-09 01:42 48.98903 2.49300 1295 ft 141 kts 85°
2026-05-09 01:42 48.98981 2.50778 1106 ft 143 kts 84°
2026-05-09 01:42 48.99061 2.52296 924 ft 144 kts 84°
2026-05-09 01:42 48.99141 2.53824 732 ft 145 kts 83°
2026-05-09 01:43 48.99223 2.55352 538 ft 144 kts 83°
2026-05-09 01:43 48.99307 2.56875 363 ft 144 kts 84°
2026-05-09 01:43 48.99390 2.58230 337 ft 101 kts 85°
2026-05-09 01:43 48.99431 2.59023 323 ft 65 kts 78°
2026-05-09 01:44 48.99587 2.59613 320 ft 39 kts 56°
2026-05-09 01:44 48.99801 2.59672 319 ft 37 kts 355°
2026-05-09 01:44 48.99982 2.59541 320 ft 26 kts 278°
2026-05-09 01:44 48.99974 2.59269 323 ft 26 kts 267°
2026-05-09 01:45 48.99962 2.58997 324 ft 26 kts 265°
2026-05-09 01:45 48.99946 2.58725 327 ft 26 kts 266°
2026-05-09 01:45 48.99932 2.58453 332 ft 26 kts 264°
2026-05-09 01:45 48.99918 2.58185 333 ft 26 kts 264°
2026-05-09 01:46 48.99902 2.57913 334 ft 26 kts 264°
2026-05-09 01:46 48.99886 2.57642 352 ft 26 kts 265°
2026-05-09 01:46 48.99873 2.57369 354 ft 26 kts 266°
2026-05-09 01:46 48.99859 2.57098 354 ft 26 kts 265°
2026-05-09 01:47 48.99844 2.56826 356 ft 26 kts 265°
2026-05-09 01:47 48.99829 2.56555 360 ft 26 kts 265°
2026-05-09 01:47 48.99813 2.56284 358 ft 26 kts 265°
2026-05-09 01:47 48.99799 2.56012 359 ft 26 kts 266°
2026-05-09 01:48 48.99834 2.55738 346 ft 28 kts 287°
2026-05-09 01:48 48.99892 2.55452 339 ft 29 kts 270°
2026-05-09 01:48 48.99878 2.55147 335 ft 29 kts 263°
2026-05-09 01:48 48.99863 2.54842 336 ft 29 kts 265°
2026-05-09 01:49 48.99847 2.54541 335 ft 29 kts 265°
2026-05-09 01:49 48.99831 2.54236 336 ft 29 kts 265°
2026-05-09 01:49 48.99812 2.53931 335 ft 29 kts 263°
2026-05-09 01:49 48.99699 2.53690 335 ft 29 kts 221°
2026-05-09 01:50 48.99546 2.53493 334 ft 29 kts 214°
2026-05-09 01:50 48.99348 2.53473 337 ft 29 kts 176°
2026-05-09 01:50 48.99156 2.53497 337 ft 24 kts 176°
2026-05-09 01:50 48.99035 2.53497 333 ft 15 kts 202°
2026-05-09 01:51 48.99055 2.53389 334 ft 15 kts 344°
2026-05-09 01:51 48.99081 2.53364 333 ft 4 kts 293°
2026-05-09 01:51 48.99088 2.53244 336 ft 0 kts 269°